Wetterdaten: Donnerstag, 15.11.2018
Datum Zeit Temp. Aussen Temp. o. S. +5cm Feuchte Auss Luftdruck Regen Sonnenschein Regendauer Solar Windben Empfang
15.11.2018 00:00 6,2 C 5,6 C 5,0 C 94 % 1024,2 hPa 0,0 l/m 0 min 0 min 0 W/m 9,7 km/h (2 Bft) 93,62 %
15.11.2018 00:02 6,2 C 5,6 C 5,0 C 94 % 1024,2 hPa 0,0 l/m 0 min 0 min 0 W/m 12,9 km/h (3 Bft) 97,22 %
15.11.2018 00:04 6,2 C 5,6 C 5,0 C 94 % 1024,2 hPa 0,0 l/m 0 min 0 min 0 W/m 9,7 km/h (2 Bft) 95,74 %
15.11.2018 00:08 6,2 C 5,6 C 5,0 C 94 % 1024,3 hPa 0,0 l/m 0 min 0 min 0 W/m 9,7 km/h (2 Bft) 96,81 %
15.11.2018 00:10 6,2 C 5,6 C 5,0 C 94 % 1024,3 hPa 0,0 l/m 0 min 0 min 0 W/m 6,4 km/h (2 Bft) 97,83 %
15.11.2018 00:12 6,2 C 5,6 C 5,0 C 94 % 1024,3 hPa 0,0 l/m 0 min 0 min 0 W/m 16,1 km/h (3 Bft) 97,87 %
15.11.2018 00:14 6,2 C 5,6 C 5,0 C 94 % 1024,2 hPa 0,0 l/m 0 min 0 min 0 W/m 16,1 km/h (3 Bft) 97,87 %
15.11.2018 00:16 6,2 C 5,6 C 5,0 C 94 % 1024,2 hPa 0,0 l/m 0 min 0 min 0 W/m 12,9 km/h (3 Bft) 95,74 %
15.11.2018 00:18 6,2 C 5,6 C 5,0 C 95 % 1024,2 hPa 0,0 l/m 0 min 0 min 0 W/m 16,1 km/h (3 Bft) 97,87 %
15.11.2018 00:20 6,2 C 5,6 C 5,0 C 95 % 1024,2 hPa 0,0 l/m 0 min 0 min 0 W/m 9,7 km/h (2 Bft) 97,87 %
15.11.2018 00:22 6,2 C 5,6 C 5,0 C 95 % 1024,2 hPa 0,0 l/m 0 min 0 min 0 W/m 6,4 km/h (2 Bft) 97,83 %
15.11.2018 00:24 6,2 C 5,6 C 5,0 C 95 % 1024,2 hPa 0,0 l/m 0 min 0 min 0 W/m 12,9 km/h (3 Bft) 97,87 %
15.11.2018 00:26 6,1 C 5,6 C 5,0 C 95 % 1024,1 hPa 0,0 l/m 0 min 0 min 0 W/m 9,7 km/h (2 Bft) 97,87 %
15.11.2018 00:28 6,1 C 5,6 C 5,0 C 95 % 1024,1 hPa 0,0 l/m 0 min 0 min 0 W/m 9,7 km/h (2 Bft) 97,87 %
15.11.2018 00:30 6,1 C 5,6 C 5,0 C 95 % 1024,2 hPa 0,0 l/m 0 min 0 min 0 W/m 16,1 km/h (3 Bft) 97,87 %
15.11.2018 00:32 6,1 C 5,6 C 5,0 C 95 % 1024,2 hPa 0,0 l/m 0 min 0 min 0 W/m 12,9 km/h (3 Bft) 95,65 %
15.11.2018 00:34 6,1 C 5,6 C 5,0 C 95 % 1024,1 hPa 0,0 l/m 0 min 0 min 0 W/m 19,3 km/h (3 Bft) 97,87 %
15.11.2018 00:36 6,1 C 5,6 C 5,0 C 95 % 1024,2 hPa 0,0 l/m 0 min 0 min 0 W/m 9,7 km/h (2 Bft) 97,87 %
15.11.2018 00:38 6,1 C 5,6 C 5,0 C 95 % 1024,2 hPa 0,0 l/m 0 min 0 min 0 W/m 6,4 km/h (2 Bft) 95,74 %
15.11.2018 00:40 6,1 C 5,6 C 5,0 C 95 % 1024,2 hPa 0,0 l/m 0 min 0 min 0 W/m 16,1 km/h (3 Bft) 97,87 %
15.11.2018 00:42 6,1 C 5,6 C 5,0 C 95 % 1024,2 hPa 0,0 l/m 0 min 0 min 0 W/m 9,7 km/h (2 Bft) 97,87 %
15.11.2018 00:44 6,1 C 5,6 C 5,0 C 95 % 1024,2 hPa 0,0 l/m 0 min 0 min 0 W/m 12,9 km/h (3 Bft) 97,83 %
15.11.2018 00:46 6,1 C 5,6 C 5,0 C 95 % 1024,2 hPa 0,0 l/m 0 min 0 min 0 W/m 6,4 km/h (2 Bft) 97,87 %
15.11.2018 00:48 6,1 C 5,6 C 5,0 C 95 % 1024,2 hPa 0,0 l/m 0 min 0 min 0 W/m 12,9 km/h (3 Bft) 97,87 %
15.11.2018 00:50 6,1 C 5,6 C 5,0 C 95 % 1024,1 hPa 0,0 l/m 0 min 0 min 0 W/m 12,9 km/h (3 Bft) 100,00 %
15.11.2018 00:52 6,1 C 5,6 C 5,0 C 95 % 1024,1 hPa 0,0 l/m 0 min 0 min 0 W/m 12,9 km/h (3 Bft) 100,00 %
15.11.2018 00:54 6,1 C 5,6 C 5,0 C 95 % 1024,1 hPa 0,0 l/m 0 min 0 min 0 W/m 16,1 km/h (3 Bft) 97,87 %
15.11.2018 00:56 6,1 C 5,6 C 5,0 C 95 % 1024,1 hPa 0,0 l/m 0 min 0 min 0 W/m 12,9 km/h (3 Bft) 95,65 %
15.11.2018 00:58 6,1 C 5,6 C 4,4 C 95 % 1024,1 hPa 0,0 l/m 0 min 0 min 0 W/m 6,4 km/h (2 Bft) 100,00 %
15.11.2018 01:00 6,0 C 5,6 C 4,4 C 95 % 1024,1 hPa 0,0 l/m 0 min 0 min 0 W/m 9,7 km/h (2 Bft) 100,00 %
15.11.2018 01:02 6,0 C 5,6 C 4,4 C 95 % 1024,1 hPa 0,0 l/m 0 min 0 min 0 W/m 6,4 km/h (2 Bft) 100,00 %
15.11.2018 01:04 6,0 C 5,6 C 4,4 C 95 % 1024,1 hPa 0,0 l/m 0 min 0 min 0 W/m 12,9 km/h (3 Bft) 97,87 %
15.11.2018 01:06 6,0 C 5,6 C 4,4 C 95 % 1024,1 hPa 0,0 l/m 0 min 0 min 0 W/m 9,7 km/h (2 Bft) 93,62 %
15.11.2018 01:08 6,0 C 5,6 C 5,0 C 95 % 1024,1 hPa 0,0 l/m 0 min 0 min 0 W/m 16,1 km/h (3 Bft) 97,83 %
15.11.2018 01:10 6,0 C 5,6 C 5,0 C 95 % 1024,1 hPa 0,0 l/m 0 min 0 min 0 W/m 19,3 km/h (3 Bft) 97,87 %
15.11.2018 01:12 6,0 C 5,6 C 5,0 C 95 % 1024,1 hPa 0,0 l/m 0 min 0 min 0 W/m 16,1 km/h (3 Bft) 97,87 %
15.11.2018 01:14 6,0 C 5,6 C 5,0 C 95 % 1024,1 hPa 0,0 l/m 0 min 0 min 0 W/m 9,7 km/h (2 Bft) 97,87 %
15.11.2018 01:16 6,0 C 5,6 C 5,0 C 95 % 1024,0 hPa 0,0 l/m 0 min 0 min 0 W/m 9,7 km/h (2 Bft) 95,74 %
15.11.2018 01:18 6,0 C 5,6 C 5,0 C 95 % 1024,0 hPa 0,0 l/m 0 min 0 min 0 W/m 9,7 km/h (2 Bft) 95,74 %
15.11.2018 01:20 6,0 C 5,6 C 5,0 C 95 % 1024,1 hPa 0,0 l/m 0 min 0 min 0 W/m 16,1 km/h (3 Bft) 97,83 %
15.11.2018 01:22 6,1 C 5,6 C 5,0 C 95 % 1024,1 hPa 0,0 l/m 0 min 0 min 0 W/m 12,9 km/h (3 Bft) 97,87 %
15.11.2018 01:24 6,1 C 5,6 C 5,0 C 95 % 1024,1 hPa 0,0 l/m 0 min 0 min 0 W/m 16,1 km/h (3 Bft) 97,87 %
15.11.2018 01:26 6,1 C 5,6 C 5,0 C 95 % 1024,1 hPa 0,0 l/m 0 min 0 min 0 W/m 16,1 km/h (3 Bft) 97,87 %
15.11.2018 01:28 6,1 C 5,6 C 5,0 C 95 % 1024,1 hPa 0,0 l/m 0 min 0 min 0 W/m 9,7 km/h (2 Bft) 97,87 %
15.11.2018 01:30 6,1 C 5,6 C 5,0 C 96 % 1024,0 hPa 0,0 l/m 0 min 0 min 0 W/m 19,3 km/h (3 Bft) 97,87 %
15.11.2018 01:32 6,1 C 5,6 C 5,0 C 96 % 1024,0 hPa 0,0 l/m 0 min 0 min 0 W/m 12,9 km/h (3 Bft) 97,83 %
15.11.2018 01:34 6,1 C 5,6 C 5,0 C 96 % 1024,1 hPa 0,0 l/m 0 min 0 min 0 W/m 6,4 km/h (2 Bft) 95,74 %
15.11.2018 01:36 6,1 C 5,6 C 5,0 C 96 % 1024,1 hPa 0,0 l/m 0 min 0 min 0 W/m 19,3 km/h (3 Bft) 97,87 %
15.11.2018 01:38 6,1 C 5,6 C 5,0 C 96 % 1024,1 hPa 0,0 l/m 0 min 0 min 0 W/m 16,1 km/h (3 Bft) 97,87 %
15.11.2018 01:40 6,1 C 5,6 C 5,0 C 96 % 1024,0 hPa 0,0 l/m 0 min 0 min 0 W/m 12,9 km/h (3 Bft) 97,87 %
15.11.2018 01:42 6,2 C 5,6 C 5,0 C 96 % 1024,0 hPa 0,0 l/m 0 min 0 min 0 W/m 12,9 km/h (3 Bft) 95,74 %
15.11.2018 01:44 6,2 C 5,6 C 5,0 C 96 % 1023,9 hPa 0,0 l/m 0 min 0 min 0 W/m 16,1 km/h (3 Bft) 95,65 %
15.11.2018 01:46 6,2 C 5,6 C 5,0 C 96 % 1024,0 hPa 0,0 l/m 0 min 0 min 0 W/m 16,1 km/h (3 Bft) 97,87 %
15.11.2018 01:48 6,2 C 5,6 C 5,0 C 96 % 1024,0 hPa 0,0 l/m 0 min 0 min 0 W/m 12,9 km/h (3 Bft) 97,87 %
15.11.2018 01:50 6,2 C 5,6 C 5,0 C 96 % 1024,0 hPa 0,0 l/m 0 min 0 min 0 W/m 9,7 km/h (2 Bft) 97,87 %
15.11.2018 01:52 6,2 C 5,6 C 5,0 C 96 % 1024,0 hPa 0,0 l/m 0 min 0 min 0 W/m 16,1 km/h (3 Bft) 97,87 %
15.11.2018 01:54 6,2 C 5,6 C 5,0 C 96 % 1024,0 hPa 0,0 l/m 0 min 0 min 0 W/m 9,7 km/h (2 Bft) 97,83 %
15.11.2018 01:56 6,2 C 5,6 C 5,0 C 96 % 1024,1 hPa 0,0 l/m 0 min 0 min 0 W/m 16,1 km/h (3 Bft) 97,87 %
15.11.2018 01:58 6,2 C 5,6 C 5,0 C 96 % 1024,1 hPa 0,0 l/m 0 min 0 min 0 W/m 22,5 km/h (4 Bft) 100,00 %
15.11.2018 02:00 6,2 C 5,6 C 5,0 C 96 % 1024,1 hPa 0,0 l/m 0 min 0 min 0 W/m 12,9 km/h (3 Bft) 97,87 %
15.11.2018 02:02 6,2 C 5,6 C 5,0 C 96 % 1024,1 hPa 0,0 l/m 0 min 0 min 0 W/m 12,9 km/h (3 Bft) 95,74 %
15.11.2018 02:04 6,2 C 5,6 C 5,0 C 96 % 1024,1 hPa 0,0 l/m 0 min 0 min 0 W/m 12,9 km/h (3 Bft) 95,74 %
15.11.2018 02:06 6,2 C 5,6 C 5,0 C 96 % 1024,1 hPa 0,0 l/m 0 min 0 min 0 W/m 12,9 km/h (3 Bft) 95,65 %
15.11.2018 02:08 6,2 C 5,6 C 5,0 C 96 % 1024,1 hPa 0,0 l/m 0 min 0 min 0 W/m 16,1 km/h (3 Bft) 97,87 %
15.11.2018 02:10 6,2 C 5,6 C 5,0 C 96 % 1024,1 hPa 0,0 l/m 0 min 0 min 0 W/m 12,9 km/h (3 Bft) 97,87 %
15.11.2018 02:12 6,2 C 5,6 C 5,0 C 96 % 1024,0 hPa 0,0 l/m 0 min 0 min 0 W/m 6,4 km/h (2 Bft) 97,87 %
15.11.2018 02:14 6,2 C 5,6 C 5,0 C 96 % 1024,0 hPa 0,0 l/m 0 min 0 min 0 W/m 6,4 km/h (2 Bft) 97,87 %
15.11.2018 02:16 6,2 C 5,6 C 5,0 C 96 % 1024,0 hPa 0,0 l/m 0 min 0 min 0 W/m 19,3 km/h (3 Bft) 97,87 %
15.11.2018 02:18 6,2 C 5,6 C 5,0 C 96 % 1024,0 hPa 0,0 l/m 0 min 0 min 0 W/m 12,9 km/h (3 Bft) 97,83 %
15.11.2018 02:20 6,2 C 5,6 C 5,0 C 96 % 1024,0 hPa 0,0 l/m 0 min 0 min 0 W/m 9,7 km/h (2 Bft) 97,87 %
15.11.2018 02:22 6,2 C 5,6 C 5,0 C 96 % 1024,0 hPa 0,0 l/m 0 min 0 min 0 W/m 12,9 km/h (3 Bft) 97,87 %
15.11.2018 02:24 6,2 C 5,6 C 5,0 C 96 % 1024,1 hPa 0,0 l/m 0 min 0 min 0 W/m 16,1 km/h (3 Bft) 97,87 %
15.11.2018 02:26 6,2 C 5,6 C 5,0 C 96 % 1024,0 hPa 0,0 l/m 0 min 0 min 0 W/m 12,9 km/h (3 Bft) 97,87 %
15.11.2018 02:28 6,2 C 5,6 C 5,0 C 96 % 1024,0 hPa 0,0 l/m 0 min 0 min 0 W/m 12,9 km/h (3 Bft) 97,87 %
15.11.2018 02:30 6,2 C 5,6 C 5,0 C 96 % 1024,0 hPa 0,0 l/m 0 min 0 min 0 W/m 12,9 km/h (3 Bft) 97,83 %
15.11.2018 02:32 6,1 C 5,6 C 5,0 C 96 % 1024,0 hPa 0,0 l/m 0 min 0 min 0 W/m 12,9 km/h (3 Bft) 97,87 %
15.11.2018 02:34 6,2 C 5,6 C 5,0 C 96 % 1024,0 hPa 0,0 l/m 0 min 0 min 0 W/m 9,7 km/h (2 Bft) 93,62 %
15.11.2018 02:36 6,2 C 5,6 C 5,0 C 96 % 1024,0 hPa 0,0 l/m 0 min 0 min 0 W/m 9,7 km/h (2 Bft) 95,74 %
15.11.2018 02:38 6,2 C 5,6 C 5,0 C 96 % 1024,0 hPa 0,0 l/m 0 min 0 min 0 W/m 19,3 km/h (3 Bft) 97,87 %
15.11.2018 02:40 6,1 C 5,6 C 5,0 C 96 % 1024,0 hPa 0,0 l/m 0 min 0 min 0 W/m 16,1 km/h (3 Bft) 97,87 %
15.11.2018 02:42 6,1 C 5,6 C 5,0 C 96 % 1023,9 hPa 0,0 l/m 0 min 0 min 0 W/m 16,1 km/h (3 Bft) 97,83 %
15.11.2018 02:44 6,2 C 5,6 C 5,0 C 96 % 1023,9 hPa 0,0 l/m 0 min 0 min 0 W/m 16,1 km/h (3 Bft) 97,87 %
15.11.2018 02:46 6,2 C 5,6 C 5,0 C 96 % 1023,9 hPa 0,0 l/m 0 min 0 min 0 W/m 12,9 km/h (3 Bft) 97,87 %
15.11.2018 02:48 6,1 C 5,6 C 5,0 C 96 % 1023,9 hPa 0,0 l/m 0 min 0 min 0 W/m 9,7 km/h (2 Bft) 97,87 %
15.11.2018 02:50 6,1 C 5,6 C 5,0 C 96 % 1023,9 hPa 0,0 l/m 0 min 0 min 0 W/m 19,3 km/h (3 Bft) 95,74 %
15.11.2018 02:52 6,1 C 5,6 C 5,0 C 96 % 1023,9 hPa 0,0 l/m 0 min 0 min 0 W/m 16,1 km/h (3 Bft) 97,83 %
15.11.2018 02:54 6,1 C 5,6 C 5,0 C 96 % 1023,9 hPa 0,0 l/m 0 min 0 min 0 W/m 19,3 km/h (3 Bft) 100,00 %
15.11.2018 02:56 6,2 C 5,6 C 5,0 C 96 % 1023,8 hPa 0,0 l/m 0 min 0 min 0 W/m 12,9 km/h (3 Bft) 100,00 %
15.11.2018 02:58 6,1 C 5,6 C 5,0 C 96 % 1023,9 hPa 0,0 l/m 0 min 0 min 0 W/m 12,9 km/h (3 Bft) 97,87 %
15.11.2018 03:00 6,1 C 5,6 C 5,0 C 96 % 1023,9 hPa 0,0 l/m 0 min 0 min 0 W/m 9,7 km/h (2 Bft) 100,00 %
15.11.2018 03:02 6,1 C 5,6 C 5,0 C 96 % 1023,8 hPa 0,0 l/m 0 min 0 min 0 W/m 6,4 km/h (2 Bft) 100,00 %
15.11.2018 03:04 6,1 C 5,6 C 5,0 C 96 % 1023,9 hPa 0,0 l/m 0 min 0 min 0 W/m 12,9 km/h (3 Bft) 100,00 %
15.11.2018 03:06 6,1 C 5,6 C 5,0 C 96 % 1023,9 hPa 0,0 l/m 0 min 0 min 0 W/m 12,9 km/h (3 Bft) 100,00 %
15.11.2018 03:08 6,2 C 5,6 C 5,0 C 96 % 1023,8 hPa 0,0 l/m 0 min 0 min 0 W/m 12,9 km/h (3 Bft) 100,00 %
15.11.2018 03:10 6,2 C 5,6 C 5,0 C 96 % 1023,8 hPa 0,0 l/m 0 min 0 min 0 W/m 12,9 km/h (3 Bft) 100,00 %
15.11.2018 03:12 6,1 C 5,6 C 5,0 C 96 % 1023,8 hPa 0,0 l/m 0 min 0 min 0 W/m 16,1 km/h (3 Bft) 97,87 %
15.11.2018 03:14 6,2 C 5,6 C 5,0 C 96 % 1023,7 hPa 0,0 l/m 0 min 0 min 0 W/m 16,1 km/h (3 Bft) 100,00 %
15.11.2018 03:16 6,2 C 5,6 C 5,0 C 96 % 1023,8 hPa 0,0 l/m 0 min 0 min 0 W/m 6,4 km/h (2 Bft) 100,00 %
15.11.2018 03:18 6,2 C 5,6 C 5,0 C 96 % 1023,8 hPa 0,0 l/m 0 min 0 min 0 W/m 16,1 km/h (3 Bft) 100,00 %
15.11.2018 03:20 6,2 C 5,6 C 5,0 C 96 % 1023,8 hPa 0,0 l/m 0 min 0 min 0 W/m 16,1 km/h (3 Bft) 100,00 %
15.11.2018 03:22 6,2 C 5,6 C 5,0 C 96 % 1023,7 hPa 0,0 l/m 0 min 0 min 0 W/m 9,7 km/h (2 Bft) 100,00 %
15.11.2018 03:24 6,2 C 5,6 C 5,0 C 96 % 1023,7 hPa 0,0 l/m 0 min 0 min 0 W/m 16,1 km/h (3 Bft) 97,87 %
15.11.2018 03:26 6,2 C 5,6 C 5,0 C 96 % 1023,7 hPa 0,0 l/m 0 min 0 min 0 W/m 12,9 km/h (3 Bft) 100,00 %
15.11.2018 03:28 6,2 C 5,6 C 5,0 C 96 % 1023,7 hPa 0,0 l/m 0 min 0 min 0 W/m 12,9 km/h (3 Bft) 97,87 %
15.11.2018 03:30 6,2 C 5,6 C 5,0 C 96 % 1023,6 hPa 0,0 l/m 0 min 0 min 0 W/m 12,9 km/h (3 Bft) 95,74 %
15.11.2018 03:32 6,2 C 5,6 C 5,0 C 96 % 1023,7 hPa 0,0 l/m 0 min 0 min 0 W/m 16,1 km/h (3 Bft) 97,87 %
15.11.2018 03:34 6,2 C 5,6 C 5,0 C 96 % 1023,6 hPa 0,0 l/m 0 min 0 min 0 W/m 22,5 km/h (4 Bft) 95,74 %
15.11.2018 03:36 6,2 C 5,6 C 5,0 C 96 % 1023,6 hPa 0,0 l/m 0 min 0 min 0 W/m 16,1 km/h (3 Bft) 97,87 %
15.11.2018 03:38 6,2 C 5,6 C 5,0 C 96 % 1023,7 hPa 0,0 l/m 0 min 0 min 0 W/m 12,9 km/h (3 Bft) 97,83 %
15.11.2018 03:40 6,2 C 5,6 C 5,0 C 96 % 1023,6 hPa 0,0 l/m 0 min 0 min 0 W/m 9,7 km/h (2 Bft) 97,87 %
15.11.2018 03:42 6,2 C 5,6 C 5,0 C 96 % 1023,7 hPa 0,0 l/m 0 min 0 min 0 W/m 22,5 km/h (4 Bft) 97,87 %
15.11.2018 03:44 6,2 C 5,6 C 5,0 C 96 % 1023,7 hPa 0,0 l/m 0 min 0 min 0 W/m 16,1 km/h (3 Bft) 97,87 %
15.11.2018 03:46 6,2 C 5,6 C 5,0 C 96 % 1023,7 hPa 0,0 l/m 0 min 0 min 0 W/m 6,4 km/h (2 Bft) 93,62 %
15.11.2018 03:48 6,2 C 5,6 C 5,0 C 96 % 1023,6 hPa 0,0 l/m 0 min 0 min 0 W/m 9,7 km/h (2 Bft) 97,87 %
15.11.2018 03:50 6,2 C 5,6 C 5,0 C 96 % 1023,6 hPa 0,0 l/m 0 min 0 min 0 W/m 16,1 km/h (3 Bft) 97,83 %
15.11.2018 03:52 6,1 C 5,6 C 5,0 C 96 % 1023,6 hPa 0,0 l/m 0 min 0 min 0 W/m 9,7 km/h (2 Bft) 93,62 %
15.11.2018 03:54 6,1 C 5,6 C 5,0 C 96 % 1023,6 hPa 0,0 l/m 0 min 0 min 0 W/m 12,9 km/h (3 Bft) 95,74 %
15.11.2018 03:56 6,1 C 5,6 C 5,0 C 96 % 1023,7 hPa 0,0 l/m 0 min 0 min 0 W/m 9,7 km/h (2 Bft) 95,74 %
15.11.2018 03:58 6,1 C 5,6 C 5,0 C 96 % 1023,6 hPa 0,0 l/m 0 min 0 min 0 W/m 9,7 km/h (2 Bft) 95,74 %
15.11.2018 04:00 6,1 C 5,6 C 5,0 C 96 % 1023,6 hPa 0,0 l/m 0 min 0 min 0 W/m 9,7 km/h (2 Bft) 95,74 %
15.11.2018 04:02 6,1 C 5,6 C 5,0 C 96 % 1023,6 hPa 0,0 l/m 0 min 0 min 0 W/m 12,9 km/h (3 Bft) 100,00 %
15.11.2018 04:04 6,1 C 5,6 C 5,0 C 96 % 1023,6 hPa 0,0 l/m 0 min 0 min 0 W/m 9,7 km/h (2 Bft) 93,62 %
15.11.2018 04:06 6,1 C 5,6 C 4,4 C 96 % 1023,6 hPa 0,0 l/m 0 min 0 min 0 W/m 12,9 km/h (3 Bft) 95,74 %
15.11.2018 04:08 6,1 C 5,6 C 4,4 C 96 % 1023,6 hPa 0,0 l/m 0 min 0 min 0 W/m 12,9 km/h (3 Bft) 93,62 %
15.11.2018 04:10 6,0 C 5,6 C 5,0 C 96 % 1023,6 hPa 0,0 l/m 0 min 0 min 0 W/m 16,1 km/h (3 Bft) 95,74 %
15.11.2018 04:12 6,0 C 5,6 C 5,0 C 96 % 1023,7 hPa 0,0 l/m 0 min 0 min 0 W/m 16,1 km/h (3 Bft) 95,74 %
15.11.2018 04:14 6,0 C 5,6 C 5,0 C 96 % 1023,6 hPa 0,0 l/m 0 min 0 min 0 W/m 19,3 km/h (3 Bft) 93,48 %
15.11.2018 04:16 6,0 C 5,6 C 5,0 C 96 % 1023,6 hPa 0,0 l/m 0 min 0 min 0 W/m 6,4 km/h (2 Bft) 95,74 %
15.11.2018 04:18 6,0 C 5,6 C 5,0 C 96 % 1023,5 hPa 0,0 l/m 0 min 0 min 0 W/m 3,2 km/h (1 Bft) 95,74 %
15.11.2018 04:20 6,0 C 5,6 C 5,0 C 96 % 1023,5 hPa 0,0 l/m 0 min 0 min 0 W/m 16,1 km/h (3 Bft) 93,62 %
15.11.2018 04:22 6,0 C 5,6 C 5,0 C 96 % 1023,5 hPa 0,0 l/m 0 min 0 min 0 W/m 12,9 km/h (3 Bft) 95,74 %
15.11.2018 04:24 6,0 C 5,6 C 5,0 C 96 % 1023,5 hPa 0,0 l/m 0 min 0 min 0 W/m 22,5 km/h (4 Bft) 95,74 %
15.11.2018 04:26 6,0 C 5,6 C 5,0 C 96 % 1023,5 hPa 0,0 l/m 0 min 0 min 0 W/m 16,1 km/h (3 Bft) 93,48 %
15.11.2018 04:28 6,0 C 5,6 C 5,0 C 96 % 1023,5 hPa 0,0 l/m 0 min 0 min 0 W/m 16,1 km/h (3 Bft) 95,74 %
15.11.2018 04:30 6,0 C 5,6 C 5,0 C 96 % 1023,5 hPa 0,0 l/m 0 min 0 min 0 W/m 16,1 km/h (3 Bft) 95,74 %
15.11.2018 04:32 6,0 C 5,6 C 5,0 C 96 % 1023,5 hPa 0,0 l/m 0 min 0 min 0 W/m 12,9 km/h (3 Bft) 97,87 %
15.11.2018 04:34 5,9 C 5,6 C 5,0 C 96 % 1023,5 hPa 0,0 l/m 0 min 0 min 0 W/m 16,1 km/h (3 Bft) 97,87 %
15.11.2018 04:36 5,9 C 5,6 C 5,0 C 96 % 1023,4 hPa 0,0 l/m 0 min 0 min 0 W/m 16,1 km/h (3 Bft) 97,83 %
15.11.2018 04:38 5,9 C 5,6 C 5,0 C 96 % 1023,5 hPa 0,0 l/m 0 min 0 min 0 W/m 12,9 km/h (3 Bft) 95,74 %
15.11.2018 04:40 5,9 C 5,6 C 5,0 C 96 % 1023,4 hPa 0,0 l/m 0 min 0 min 0 W/m 12,9 km/h (3 Bft) 95,74 %
15.11.2018 04:42 5,9 C 5,6 C 5,0 C 96 % 1023,4 hPa 0,0 l/m 0 min 0 min 0 W/m 16,1 km/h (3 Bft) 97,87 %
15.11.2018 04:44 5,9 C 5,6 C 5,0 C 96 % 1023,4 hPa 0,0 l/m 0 min 0 min 0 W/m 12,9 km/h (3 Bft) 100,00 %
15.11.2018 04:46 5,9 C 5,6 C 5,0 C 96 % 1023,4 hPa 0,0 l/m 0 min 0 min 0 W/m 12,9 km/h (3 Bft) 97,87 %
15.11.2018 04:48 5,9 C 5,6 C 5,0 C 96 % 1023,4 hPa 0,0 l/m 0 min 0 min 0 W/m 12,9 km/h (3 Bft) 95,65 %
15.11.2018 04:50 5,9 C 5,6 C 5,0 C 96 % 1023,5 hPa 0,0 l/m 0 min 0 min 0 W/m 16,1 km/h (3 Bft) 97,87 %
15.11.2018 04:52 5,9 C 5,6 C 5,0 C 96 % 1023,4 hPa 0,0 l/m 0 min 0 min 0 W/m 16,1 km/h (3 Bft) 100,00 %
15.11.2018 04:54 5,9 C 5,6 C 5,0 C 96 % 1023,5 hPa 0,0 l/m 0 min 0 min 0 W/m 12,9 km/h (3 Bft) 97,87 %
15.11.2018 04:56 5,9 C 5,6 C 5,0 C 96 % 1023,5 hPa 0,0 l/m 0 min 0 min 0 W/m 19,3 km/h (3 Bft) 95,74 %
15.11.2018 04:58 5,9 C 5,6 C 5,0 C 96 % 1023,5 hPa 0,0 l/m 0 min 0 min 0 W/m 19,3 km/h (3 Bft) 97,87 %
15.11.2018 05:00 5,9 C 5,6 C 5,0 C 96 % 1023,5 hPa 0,0 l/m 0 min 0 min 0 W/m 12,9 km/h (3 Bft) 97,83 %
15.11.2018 05:02 5,9 C 5,6 C 5,0 C 96 % 1023,5 hPa 0,0 l/m 0 min 0 min 0 W/m 12,9 km/h (3 Bft) 97,87 %
15.11.2018 05:04 5,9 C 5,6 C 5,0 C 96 % 1023,5 hPa 0,0 l/m 0 min 0 min 0 W/m 12,9 km/h (3 Bft) 97,87 %
15.11.2018 05:06 5,9 C 5,6 C 4,4 C 96 % 1023,5 hPa 0,0 l/m 0 min 0 min 0 W/m 9,7 km/h (2 Bft) 97,96 %
15.11.2018 05:08 5,9 C 5,6 C 4,4 C 96 % 1023,5 hPa 0,0 l/m 0 min 0 min 0 W/m 12,9 km/h (3 Bft) 97,83 %
15.11.2018 05:10 5,9 C 5,6 C 4,4 C 96 % 1023,5 hPa 0,0 l/m 0 min 0 min 0 W/m 6,4 km/h (2 Bft) 97,87 %
15.11.2018 05:12 5,9 C 5,6 C 4,4 C 96 % 1023,5 hPa 0,0 l/m 0 min 0 min 0 W/m 9,7 km/h (2 Bft) 97,87 %
15.11.2018 05:14 5,9 C 5,0 C 4,4 C 96 % 1023,5 hPa 0,0 l/m 0 min 0 min 0 W/m 12,9 km/h (3 Bft) 97,87 %
15.11.2018 05:16 5,9 C 5,6 C 4,4 C 96 % 1023,5 hPa 0,0 l/m 0 min 0 min 0 W/m 12,9 km/h (3 Bft) 100,00 %
15.11.2018 05:18 5,9 C 5,0 C 4,4 C 96 % 1023,5 hPa 0,0 l/m 0 min 0 min 0 W/m 12,9 km/h (3 Bft) 100,00 %
15.11.2018 05:20 5,8 C 5,0 C 4,4 C 96 % 1023,4 hPa 0,0 l/m 0 min 0 min 0 W/m 6,4 km/h (2 Bft) 95,65 %
15.11.2018 05:22 5,8 C 5,0 C 4,4 C 96 % 1023,5 hPa 0,0 l/m 0 min 0 min 0 W/m 6,4 km/h (2 Bft) 97,87 %
15.11.2018 05:24 5,8 C 5,0 C 4,4 C 96 % 1023,6 hPa 0,0 l/m 0 min 0 min 0 W/m 9,7 km/h (2 Bft) 97,87 %
15.11.2018 05:26 5,8 C 5,0 C 4,4 C 96 % 1023,5 hPa 0,0 l/m 0 min 0 min 0 W/m 9,7 km/h (2 Bft) 97,87 %
15.11.2018 05:28 5,8 C 5,0 C 4,4 C 96 % 1023,5 hPa 0,0 l/m 0 min 0 min 0 W/m 16,1 km/h (3 Bft) 97,87 %
15.11.2018 05:30 5,8 C 5,0 C 4,4 C 96 % 1023,5 hPa 0,0 l/m 0 min 0 min 0 W/m 9,7 km/h (2 Bft) 97,87 %
15.11.2018 05:32 5,8 C 5,0 C 4,4 C 96 % 1023,5 hPa 0,0 l/m 0 min 0 min 0 W/m 9,7 km/h (2 Bft) 95,65 %
15.11.2018 05:34 5,8 C 5,0 C 4,4 C 96 % 1023,6 hPa 0,0 l/m 0 min 0 min 0 W/m 12,9 km/h (3 Bft) 97,87 %
15.11.2018 05:36 5,8 C 5,0 C 4,4 C 96 % 1023,5 hPa 0,0 l/m 0 min 0 min 0 W/m 12,9 km/h (3 Bft) 97,87 %
15.11.2018 05:38 5,7 C 5,0 C 4,4 C 96 % 1023,5 hPa 0,0 l/m 0 min 0 min 0 W/m 16,1 km/h (3 Bft) 97,87 %
15.11.2018 05:40 5,7 C 5,0 C 4,4 C 96 % 1023,4 hPa 0,0 l/m 0 min 0 min 0 W/m 16,1 km/h (3 Bft) 97,87 %
15.11.2018 05:42 5,7 C 5,0 C 4,4 C 96 % 1023,5 hPa 0,0 l/m 0 min 0 min 0 W/m 9,7 km/h (2 Bft) 97,83 %
15.11.2018 05:44 5,7 C 5,0 C 4,4 C 96 % 1023,4 hPa 0,0 l/m 0 min 0 min 0 W/m 16,1 km/h (3 Bft) 100,00 %
15.11.2018 05:46 5,7 C 5,0 C 4,4 C 96 % 1023,5 hPa 0,0 l/m 0 min 0 min 0 W/m 12,9 km/h (3 Bft) 100,00 %
15.11.2018 05:48 5,7 C 5,0 C 4,4 C 96 % 1023,5 hPa 0,0 l/m 0 min 0 min 0 W/m 12,9 km/h (3 Bft) 100,00 %
15.11.2018 05:50 5,7 C 5,0 C 4,4 C 96 % 1023,5 hPa 0,0 l/m 0 min 0 min 0 W/m 9,7 km/h (2 Bft) 100,00 %
15.11.2018 05:52 5,7 C 5,0 C 4,4 C 96 % 1023,6 hPa 0,0 l/m 0 min 0 min 0 W/m 16,1 km/h (3 Bft) 100,00 %
15.11.2018 05:54 5,7 C 5,0 C 4,4 C 96 % 1023,5 hPa 0,0 l/m 0 min 0 min 0 W/m 16,1 km/h (3 Bft) 100,00 %
15.11.2018 05:56 5,7 C 5,0 C 4,4 C 96 % 1023,5 hPa 0,0 l/m 0 min 0 min 0 W/m 19,3 km/h (3 Bft) 100,00 %
15.11.2018 05:58 5,7 C 5,0 C 4,4 C 96 % 1023,6 hPa 0,0 l/m 0 min 0 min 0 W/m 9,7 km/h (2 Bft) 100,00 %
15.11.2018 06:00 5,7 C 5,0 C 4,4 C 96 % 1023,6 hPa 0,0 l/m 0 min 0 min 0 W/m 9,7 km/h (2 Bft) 100,00 %
15.11.2018 06:02 5,6 C 5,0 C 4,4 C 96 % 1023,6 hPa 0,0 l/m 0 min 0 min 0 W/m 9,7 km/h (2 Bft) 100,00 %
15.11.2018 06:04 5,6 C 5,0 C 4,4 C 96 % 1023,6 hPa 0,0 l/m 0 min 0 min 0 W/m 19,3 km/h (3 Bft) 100,00 %
15.11.2018 06:08 5,6 C 5,0 C 4,4 C 96 % 1023,7 hPa 0,0 l/m 0 min 0 min 0 W/m 12,9 km/h (3 Bft) 98,92 %
15.11.2018 06:10 5,6 C 5,0 C 4,4 C 96 % 1023,7 hPa 0,0 l/m 0 min 0 min 0 W/m 16,1 km/h (3 Bft) 100,00 %
15.11.2018 06:12 5,6 C 5,0 C 4,4 C 96 % 1023,6 hPa 0,0 l/m 0 min 0 min 0 W/m 9,7 km/h (2 Bft) 100,00 %
15.11.2018 06:14 5,6 C 5,0 C 4,4 C 96 % 1023,7 hPa 0,0 l/m 0 min 0 min 0 W/m 16,1 km/h (3 Bft) 100,00 %
15.11.2018 06:16 5,6 C 5,0 C 4,4 C 96 % 1023,7 hPa 0,0 l/m 0 min 0 min 0 W/m 12,9 km/h (3 Bft) 100,00 %
15.11.2018 06:18 5,6 C 5,0 C 4,4 C 96 % 1023,7 hPa 0,0 l/m 0 min 0 min 0 W/m 12,9 km/h (3 Bft) 100,00 %
15.11.2018 06:20 5,6 C 5,0 C 4,4 C 96 % 1023,7 hPa 0,0 l/m 0 min 0 min 0 W/m 16,1 km/h (3 Bft) 97,87 %
15.11.2018 06:22 5,6 C 5,0 C 4,4 C 96 % 1023,7 hPa 0,0 l/m 0 min 0 min 0 W/m 9,7 km/h (2 Bft) 100,00 %
15.11.2018 06:24 5,5 C 5,0 C 4,4 C 96 % 1023,7 hPa 0,0 l/m 0 min 0 min 0 W/m 12,9 km/h (3 Bft) 100,00 %
15.11.2018 06:26 5,6 C 5,0 C 4,4 C 96 % 1023,7 hPa 0,0 l/m 0 min 0 min 0 W/m 9,7 km/h (2 Bft) 100,00 %
15.11.2018 06:28 5,5 C 5,0 C 4,4 C 96 % 1023,7 hPa 0,0 l/m 0 min 0 min 0 W/m 12,9 km/h (3 Bft) 95,74 %
15.11.2018 06:30 5,5 C 5,0 C 4,4 C 96 % 1023,7 hPa 0,0 l/m 0 min 0 min 0 W/m 19,3 km/h (3 Bft) 100,00 %
15.11.2018 06:32 5,5 C 5,0 C 4,4 C 96 % 1023,8 hPa 0,0 l/m 0 min 0 min 0 W/m 16,1 km/h (3 Bft) 100,00 %
15.11.2018 06:34 5,5 C 5,0 C 4,4 C 96 % 1023,8 hPa 0,0 l/m 0 min 0 min 0 W/m 16,1 km/h (3 Bft) 100,00 %
15.11.2018 06:36 5,5 C 5,0 C 4,4 C 96 % 1023,8 hPa 0,0 l/m 0 min 0 min 0 W/m 9,7 km/h (2 Bft) 100,00 %
15.11.2018 06:38 5,5 C 5,0 C 4,4 C 96 % 1023,8 hPa 0,0 l/m 0 min 0 min 0 W/m 16,1 km/h (3 Bft) 97,87 %
15.11.2018 06:40 5,5 C 5,0 C 4,4 C 96 % 1023,8 hPa 0,0 l/m 0 min 0 min 0 W/m 16,1 km/h (3 Bft) 97,87 %
15.11.2018 06:42 5,5 C 5,0 C 4,4 C 96 % 1023,7 hPa 0,0 l/m 0 min 0 min 0 W/m 12,9 km/h (3 Bft) 97,83 %
15.11.2018 06:44 5,5 C 5,0 C 4,4 C 96 % 1023,7 hPa 0,0 l/m 0 min 0 min 0 W/m 19,3 km/h (3 Bft) 95,74 %
15.11.2018 06:46 5,5 C 5,0 C 4,4 C 96 % 1023,8 hPa 0,0 l/m 0 min 0 min 0 W/m 12,9 km/h (3 Bft) 97,87 %
15.11.2018 06:48 5,5 C 5,0 C 4,4 C 96 % 1023,7 hPa 0,0 l/m 0 min 0 min 0 W/m 19,3 km/h (3 Bft) 97,87 %
15.11.2018 06:50 5,5 C 5,0 C 4,4 C 96 % 1023,7 hPa 0,0 l/m 0 min 0 min 0 W/m 12,9 km/h (3 Bft) 97,87 %
15.11.2018 06:52 5,5 C 5,0 C 4,4 C 96 % 1023,7 hPa 0,0 l/m 0 min 0 min 0 W/m 12,9 km/h (3 Bft) 97,83 %
15.11.2018 06:54 5,5 C 5,0 C 4,4 C 96 % 1023,6 hPa 0,0 l/m 0 min 0 min 0 W/m 12,9 km/h (3 Bft) 97,87 %
15.11.2018 06:56 5,5 C 5,0 C 4,4 C 96 % 1023,7 hPa 0,0 l/m 0 min 0 min 0 W/m 9,7 km/h (2 Bft) 95,74 %
15.11.2018 06:58 5,5 C 5,0 C 4,4 C 96 % 1023,8 hPa 0,0 l/m 0 min 0 min 0 W/m 12,9 km/h (3 Bft) 97,87 %
15.11.2018 07:00 5,5 C 5,0 C 4,4 C 96 % 1023,8 hPa 0,0 l/m 0 min 0 min 0 W/m 9,7 km/h (2 Bft) 97,87 %
15.11.2018 07:02 5,5 C 5,0 C 4,4 C 96 % 1023,8 hPa 0,0 l/m 0 min 0 min 0 W/m 6,4 km/h (2 Bft) 93,62 %
15.11.2018 07:04 5,4 C 5,0 C 4,4 C 96 % 1023,7 hPa 0,0 l/m 0 min 0 min 0 W/m 9,7 km/h (2 Bft) 97,83 %
15.11.2018 07:06 5,4 C 5,0 C 4,4 C 96 % 1023,8 hPa 0,0 l/m 0 min 0 min 0 W/m 12,9 km/h (3 Bft) 95,74 %
15.11.2018 07:08 5,4 C 5,0 C 4,4 C 96 % 1023,7 hPa 0,0 l/m 0 min 0 min 0 W/m 12,9 km/h (3 Bft) 97,87 %
15.11.2018 07:10 5,4 C 5,0 C 4,4 C 96 % 1023,7 hPa 0,0 l/m 0 min 0 min 0 W/m 16,1 km/h (3 Bft) 95,74 %
15.11.2018 07:12 5,4 C 5,0 C 3,9 C 96 % 1023,7 hPa 0,0 l/m 0 min 0 min 0 W/m 16,1 km/h (3 Bft) 95,74 %
15.11.2018 07:14 5,4 C 5,0 C 4,4 C 96 % 1023,9 hPa 0,0 l/m 0 min 0 min 0 W/m 9,7 km/h (2 Bft) 93,62 %
15.11.2018 07:16 5,4 C 5,0 C 4,4 C 96 % 1023,7 hPa 0,0 l/m 0 min 0 min 0 W/m 9,7 km/h (2 Bft) 93,48 %
15.11.2018 07:18 5,4 C 5,0 C 4,4 C 96 % 1023,8 hPa 0,0 l/m 0 min 0 min 0 W/m 9,7 km/h (2 Bft) 95,74 %
15.11.2018 07:20 5,4 C 5,0 C 4,4 C 96 % 1023,7 hPa 0,0 l/m 0 min 0 min 0 W/m 19,3 km/h (3 Bft) 93,62 %
15.11.2018 07:22 5,4 C 5,0 C 4,4 C 96 % 1023,7 hPa 0,0 l/m 0 min 0 min 0 W/m 12,9 km/h (3 Bft) 95,74 %
15.11.2018 07:24 5,4 C 5,0 C 4,4 C 96 % 1023,8 hPa 0,0 l/m 0 min 0 min 0 W/m 9,7 km/h (2 Bft) 95,74 %
15.11.2018 07:26 5,4 C 5,0 C 4,4 C 96 % 1023,8 hPa 0,0 l/m 0 min 0 min 0 W/m 25,7 km/h (4 Bft) 97,87 %
15.11.2018 07:28 5,4 C 5,0 C 4,4 C 96 % 1023,7 hPa 0,0 l/m 0 min 0 min 0 W/m 9,7 km/h (2 Bft) 95,65 %
15.11.2018 07:30 5,4 C 5,0 C 4,4 C 96 % 1023,8 hPa 0,0 l/m 0 min 0 min 0 W/m 22,5 km/h (4 Bft) 97,87 %
15.11.2018 07:32 5,4 C 5,0 C 4,4 C 96 % 1023,8 hPa 0,0 l/m 0 min 0 min 0 W/m 12,9 km/h (3 Bft) 95,74 %
15.11.2018 07:34 5,4 C 5,0 C 4,4 C 96 % 1023,8 hPa 0,0 l/m 0 min 0 min 0 W/m 22,5 km/h (4 Bft) 95,74 %
15.11.2018 07:36 5,4 C 5,0 C 4,4 C 96 % 1023,8 hPa 0,0 l/m 0 min 0 min 0 W/m 19,3 km/h (3 Bft) 95,74 %
15.11.2018 07:38 5,4 C 5,0 C 4,4 C 96 % 1023,9 hPa 0,0 l/m 0 min 0 min 0 W/m 9,7 km/h (2 Bft) 97,87 %
15.11.2018 07:40 5,4 C 5,0 C 4,4 C 96 % 1023,8 hPa 0,0 l/m 0 min 0 min 0 W/m 9,7 km/h (2 Bft) 95,65 %
15.11.2018 07:42 5,4 C 5,0 C 4,4 C 96 % 1023,9 hPa 0,0 l/m 0 min 0 min 0 W/m 12,9 km/h (3 Bft) 91,49 %
15.11.2018 07:44 5,4 C 5,0 C 4,4 C 96 % 1023,9 hPa 0,0 l/m 0 min 0 min 0 W/m 9,7 km/h (2 Bft) 95,74 %
15.11.2018 07:46 5,4 C 5,0 C 4,4 C 96 % 1023,8 hPa 0,0 l/m 0 min 0 min 0 W/m 9,7 km/h (2 Bft) 95,74 %
15.11.2018 07:48 5,4 C 5,0 C 4,4 C 96 % 1023,9 hPa 0,0 l/m 0 min 0 min 0 W/m 3,2 km/h (1 Bft) 97,87 %
15.11.2018 07:50 5,4 C 5,0 C 4,4 C 96 % 1023,8 hPa 0,0 l/m 0 min 0 min 0 W/m 12,9 km/h (3 Bft) 93,62 %
15.11.2018 07:52 5,4 C 5,0 C 4,4 C 96 % 1023,8 hPa 0,0 l/m 0 min 0 min 0 W/m 16,1 km/h (3 Bft) 95,65 %
15.11.2018 07:54 5,3 C 5,0 C 4,4 C 96 % 1023,9 hPa 0,0 l/m 0 min 0 min 5 W/m 22,5 km/h (4 Bft) 95,74 %
15.11.2018 07:56 5,4 C 5,0 C 4,4 C 96 % 1023,9 hPa 0,0 l/m 0 min 0 min 5 W/m 22,5 km/h (4 Bft) 95,74 %
15.11.2018 07:58 5,3 C 5,0 C 4,4 C 96 % 1024,0 hPa 0,0 l/m 0 min 0 min 5 W/m 16,1 km/h (3 Bft) 95,74 %
15.11.2018 08:00 5,4 C 5,0 C 4,4 C 96 % 1024,0 hPa 0,0 l/m 0 min 0 min 7 W/m 19,3 km/h (3 Bft) 95,74 %
15.11.2018 08:02 5,3 C 5,0 C 4,4 C 96 % 1024,0 hPa 0,0 l/m 0 min 0 min 7 W/m 12,9 km/h (3 Bft) 93,48 %
15.11.2018 08:04 5,4 C 5,0 C 4,4 C 96 % 1023,9 hPa 0,0 l/m 0 min 0 min 7 W/m 16,1 km/h (3 Bft) 93,62 %
15.11.2018 08:06 5,3 C 5,0 C 4,4 C 96 % 1024,0 hPa 0,0 l/m 0 min 0 min 9 W/m 6,4 km/h (2 Bft) 93,62 %
15.11.2018 08:08 5,4 C 5,0 C 4,4 C 96 % 1024,1 hPa 0,0 l/m 0 min 0 min 10 W/m 12,9 km/h (3 Bft) 95,74 %
15.11.2018 08:10 5,4 C 5,0 C 4,4 C 96 % 1024,1 hPa 0,0 l/m 0 min 0 min 12 W/m 19,3 km/h (3 Bft) 97,87 %
15.11.2018 08:12 5,4 C 5,0 C 4,4 C 96 % 1024,1 hPa 0,0 l/m 0 min 0 min 12 W/m 6,4 km/h (2 Bft) 97,87 %
15.11.2018 08:14 5,3 C 5,0 C 4,4 C 96 % 1024,1 hPa 0,0 l/m 0 min 0 min 13 W/m 9,7 km/h (2 Bft) 95,65 %
15.11.2018 08:16 5,4 C 5,0 C 4,4 C 96 % 1024,0 hPa 0,0 l/m 0 min 0 min 14 W/m 25,7 km/h (4 Bft) 97,87 %
15.11.2018 08:18 5,4 C 5,0 C 4,4 C 96 % 1024,1 hPa 0,0 l/m 0 min 0 min 14 W/m 19,3 km/h (3 Bft) 97,87 %
15.11.2018 08:20 5,4 C 5,0 C 4,4 C 96 % 1024,1 hPa 0,0 l/m 0 min 0 min 15 W/m 12,9 km/h (3 Bft) 97,87 %
15.11.2018 08:22 5,4 C 5,0 C 4,4 C 96 % 1024,0 hPa 0,0 l/m 0 min 0 min 16 W/m 12,9 km/h (3 Bft) 97,87 %
15.11.2018 08:24 5,4 C 5,0 C 4,4 C 96 % 1024,1 hPa 0,0 l/m 0 min 0 min 16 W/m 16,1 km/h (3 Bft) 97,87 %
15.11.2018 08:26 5,4 C 5,0 C 4,4 C 96 % 1024,1 hPa 0,0 l/m 0 min 0 min 18 W/m 6,4 km/h (2 Bft) 95,65 %
15.11.2018 08:28 5,4 C 5,0 C 4,4 C 96 % 1024,1 hPa 0,0 l/m 0 min 0 min 20 W/m 12,9 km/h (3 Bft) 97,87 %
15.11.2018 08:30 5,4 C 5,0 C 4,4 C 96 % 1024,1 hPa 0,0 l/m 0 min 0 min 21 W/m 9,7 km/h (2 Bft) 97,87 %
15.11.2018 08:32 5,4 C 5,0 C 4,4 C 96 % 1024,1 hPa 0,0 l/m 0 min 0 min 21 W/m 9,7 km/h (2 Bft) 95,74 %
15.11.2018 08:34 5,4 C 5,0 C 4,4 C 96 % 1024,2 hPa 0,0 l/m 0 min 0 min 22 W/m 12,9 km/h (3 Bft) 95,74 %
15.11.2018 08:36 5,4 C 5,0 C 4,4 C 96 % 1024,2 hPa 0,0 l/m 0 min 0 min 23 W/m 9,7 km/h (2 Bft) 97,87 %
15.11.2018 08:38 5,4 C 5,0 C 4,4 C 96 % 1024,2 hPa 0,0 l/m 0 min 0 min 25 W/m 9,7 km/h (2 Bft) 97,83 %
15.11.2018 08:40 5,4 C 5,0 C 4,4 C 96 % 1024,2 hPa 0,0 l/m 0 min 0 min 26 W/m 6,4 km/h (2 Bft) 97,87 %
15.11.2018 08:42 5,4 C 5,0 C 4,4 C 96 % 1024,2 hPa 0,0 l/m 0 min 0 min 26 W/m 16,1 km/h (3 Bft) 95,74 %
15.11.2018 08:44 5,4 C 5,0 C 4,4 C 96 % 1024,2 hPa 0,0 l/m 0 min 0 min 27 W/m 12,9 km/h (3 Bft) 100,00 %
15.11.2018 08:46 5,4 C 5,0 C 4,4 C 96 % 1024,2 hPa 0,0 l/m 0 min 0 min 28 W/m 12,9 km/h (3 Bft) 100,00 %
15.11.2018 08:48 5,4 C 5,0 C 4,4 C 96 % 1024,2 hPa 0,0 l/m 0 min 0 min 28 W/m 16,1 km/h (3 Bft) 100,00 %
15.11.2018 08:50 5,4 C 5,0 C 4,4 C 96 % 1024,2 hPa 0,0 l/m 0 min 0 min 30 W/m 22,5 km/h (4 Bft) 100,00 %
15.11.2018 08:52 5,4 C 5,6 C 4,4 C 96 % 1024,2 hPa 0,0 l/m 0 min 0 min 30 W/m 16,1 km/h (3 Bft) 100,00 %
15.11.2018 08:54 5,4 C 5,6 C 4,4 C 96 % 1024,2 hPa 0,0 l/m 0 min 0 min 32 W/m 16,1 km/h (3 Bft) 100,00 %
15.11.2018 08:56 5,4 C 5,6 C 4,4 C 96 % 1024,2 hPa 0,0 l/m 0 min 0 min 32 W/m 16,1 km/h (3 Bft) 100,00 %
15.11.2018 08:58 5,4 C 5,6 C 4,4 C 96 % 1024,1 hPa 0,0 l/m 0 min 0 min 33 W/m 16,1 km/h (3 Bft) 100,00 %
15.11.2018 09:00 5,5 C 5,6 C 4,4 C 96 % 1024,2 hPa 0,0 l/m 0 min 0 min 42 W/m 9,7 km/h (2 Bft) 100,00 %
15.11.2018 09:02 5,5 C 6,7 C 4,4 C 96 % 1024,2 hPa 0,0 l/m 2 min 0 min 85 W/m 9,7 km/h (2 Bft) 100,00 %
15.11.2018 09:04 5,5 C 7,2 C 4,4 C 96 % 1024,2 hPa 0,0 l/m 2 min 0 min 102 W/m 9,7 km/h (2 Bft) 100,00 %
15.11.2018 09:06 5,6 C 7,8 C 4,4 C 96 % 1024,2 hPa 0,0 l/m 2 min 0 min 104 W/m 16,1 km/h (3 Bft) 100,00 %
15.11.2018 09:08 5,6 C 7,8 C 4,4 C 96 % 1024,2 hPa 0,0 l/m 2 min 0 min 112 W/m 12,9 km/h (3 Bft) 100,00 %
15.11.2018 09:10 5,7 C 7,2 C 5,0 C 96 % 1024,2 hPa 0,0 l/m 2 min 0 min 116 W/m 12,9 km/h (3 Bft) 97,87 %
15.11.2018 09:12 5,7 C 7,2 C 5,0 C 96 % 1024,1 hPa 0,0 l/m 2 min 0 min 120 W/m 12,9 km/h (3 Bft) 100,00 %
15.11.2018 09:14 5,8 C 7,8 C 5,0 C 96 % 1024,1 hPa 0,0 l/m 2 min 0 min 122 W/m 16,1 km/h (3 Bft) 100,00 %
15.11.2018 09:16 5,8 C 7,8 C 5,0 C 96 % 1024,2 hPa 0,0 l/m 2 min 0 min 129 W/m 16,1 km/h (3 Bft) 100,00 %
15.11.2018 09:18 5,9 C 8,3 C 5,0 C 96 % 1024,2 hPa 0,0 l/m 2 min 0 min 131 W/m 12,9 km/h (3 Bft) 97,87 %
15.11.2018 09:20 5,9 C 8,9 C 5,0 C 96 % 1024,2 hPa 0,0 l/m 2 min 0 min 139 W/m 6,4 km/h (2 Bft) 95,74 %
15.11.2018 09:22 6,0 C 8,9 C 5,0 C 96 % 1024,2 hPa 0,0 l/m 2 min 0 min 141 W/m 9,7 km/h (2 Bft) 95,74 %
15.11.2018 09:24 6,1 C 8,9 C 5,0 C 96 % 1024,2 hPa 0,0 l/m 2 min 0 min 144 W/m 9,7 km/h (2 Bft) 97,83 %
15.11.2018 09:26 6,1 C 9,4 C 5,0 C 96 % 1024,2 hPa 0,0 l/m 2 min 0 min 148 W/m 9,7 km/h (2 Bft) 97,87 %
15.11.2018 09:28 6,2 C 9,4 C 5,0 C 96 % 1024,2 hPa 0,0 l/m 2 min 0 min 151 W/m 16,1 km/h (3 Bft) 97,87 %
15.11.2018 09:30 6,2 C 8,9 C 5,0 C 96 % 1024,2 hPa 0,0 l/m 2 min 0 min 154 W/m 16,1 km/h (3 Bft) 97,87 %
15.11.2018 09:32 6,3 C 8,9 C 5,0 C 96 % 1024,3 hPa 0,0 l/m 2 min 0 min 153 W/m 19,3 km/h (3 Bft) 97,87 %
15.11.2018 09:34 6,4 C 8,9 C 5,6 C 96 % 1024,3 hPa 0,0 l/m 2 min 0 min 159 W/m 19,3 km/h (3 Bft) 97,87 %
15.11.2018 09:36 6,4 C 8,9 C 5,6 C 96 % 1024,3 hPa 0,0 l/m 2 min 0 min 162 W/m 16,1 km/h (3 Bft) 97,83 %
15.11.2018 09:38 6,4 C 8,3 C 5,6 C 96 % 1024,3 hPa 0,0 l/m 2 min 0 min 171 W/m 25,7 km/h (4 Bft) 95,74 %
15.11.2018 09:40 6,4 C 7,8 C 5,6 C 96 % 1024,3 hPa 0,0 l/m 2 min 0 min 177 W/m 12,9 km/h (3 Bft) 95,74 %
15.11.2018 09:42 6,5 C 7,2 C 5,6 C 96 % 1024,3 hPa 0,0 l/m 2 min 0 min 176 W/m 9,7 km/h (2 Bft) 97,87 %
15.11.2018 09:44 6,5 C 6,7 C 5,6 C 96 % 1024,3 hPa 0,0 l/m 2 min 0 min 172 W/m 16,1 km/h (3 Bft) 97,87 %
15.11.2018 09:46 6,6 C 6,7 C 5,6 C 96 % 1024,2 hPa 0,0 l/m 2 min 0 min 165 W/m 12,9 km/h (3 Bft) 97,87 %
15.11.2018 09:48 6,6 C 6,7 C 5,6 C 95 % 1024,2 hPa 0,0 l/m 2 min 0 min 132 W/m 19,3 km/h (3 Bft) 97,83 %
15.11.2018 09:50 6,6 C 6,7 C 5,6 C 95 % 1024,3 hPa 0,0 l/m 2 min 0 min 123 W/m 19,3 km/h (3 Bft) 93,62 %
15.11.2018 09:52 6,6 C 7,2 C 5,6 C 95 % 1024,3 hPa 0,0 l/m 2 min 0 min 144 W/m 9,7 km/h (2 Bft) 97,87 %
15.11.2018 09:54 6,6 C 7,8 C 5,6 C 95 % 1024,3 hPa 0,0 l/m 2 min 0 min 175 W/m 22,5 km/h (4 Bft) 95,74 %
15.11.2018 09:56 6,7 C 8,3 C 5,6 C 95 % 1024,2 hPa 0,0 l/m 2 min 0 min 204 W/m 16,1 km/h (3 Bft) 100,00 %
15.11.2018 09:58 6,7 C 9,4 C 5,6 C 95 % 1024,2 hPa 0,0 l/m 2 min 0 min 214 W/m 16,1 km/h (3 Bft) 100,00 %
15.11.2018 10:00 6,7 C 10,0 C 5,6 C 95 % 1024,2 hPa 0,0 l/m 2 min 0 min 218 W/m 25,7 km/h (4 Bft) 97,83 %
15.11.2018 10:02 6,8 C 10,0 C 6,1 C 95 % 1024,3 hPa 0,0 l/m 2 min 0 min 221 W/m 29,0 km/h (5 Bft) 100,00 %
15.11.2018 10:04 6,8 C 10,6 C 6,1 C 95 % 1024,4 hPa 0,0 l/m 2 min 0 min 222 W/m 22,5 km/h (4 Bft) 100,00 %
15.11.2018 10:06 6,9 C 10,6 C 6,1 C 95 % 1024,3 hPa 0,0 l/m 2 min 0 min 225 W/m 25,7 km/h (4 Bft) 100,00 %
15.11.2018 10:08 6,9 C 10,6 C 6,1 C 94 % 1024,3 hPa 0,0 l/m 2 min 0 min 229 W/m 16,1 km/h (3 Bft) 100,00 %
15.11.2018 10:10 7,0 C 10,6 C 6,1 C 94 % 1024,3 hPa 0,0 l/m 2 min 0 min 236 W/m 22,5 km/h (4 Bft) 95,74 %
15.11.2018 10:12 7,1 C 10,6 C 6,1 C 94 % 1024,4 hPa 0,0 l/m 2 min 0 min 239 W/m 22,5 km/h (4 Bft) 97,83 %
15.11.2018 10:14 7,2 C 11,7 C 6,1 C 94 % 1024,3 hPa 0,0 l/m 2 min 0 min 240 W/m 19,3 km/h (3 Bft) 97,87 %
15.11.2018 10:16 7,2 C 11,1 C 6,1 C 94 % 1024,3 hPa 0,0 l/m 2 min 0 min 245 W/m 19,3 km/h (3 Bft) 93,62 %
15.11.2018 10:18 7,3 C 11,1 C 6,1 C 94 % 1024,3 hPa 0,0 l/m 2 min 0 min 237 W/m 16,1 km/h (3 Bft) 97,87 %
15.11.2018 10:20 7,4 C 11,1 C 6,1 C 94 % 1024,3 hPa 0,0 l/m 2 min 0 min 241 W/m 25,7 km/h (4 Bft) 95,74 %
15.11.2018 10:22 7,4 C 11,7 C 6,1 C 94 % 1024,3 hPa 0,0 l/m 2 min 0 min 248 W/m 12,9 km/h (3 Bft) 97,83 %
15.11.2018 10:24 7,6 C 11,7 C 6,1 C 93 % 1024,3 hPa 0,0 l/m 2 min 0 min 257 W/m 12,9 km/h (3 Bft) 97,87 %
15.11.2018 10:26 7,6 C 11,7 C 6,1 C 93 % 1024,3 hPa 0,0 l/m 2 min 0 min 261 W/m 12,9 km/h (3 Bft) 97,87 %
15.11.2018 10:28 7,7 C 11,7 C 6,1 C 93 % 1024,4 hPa 0,0 l/m 2 min 0 min 249 W/m 19,3 km/h (3 Bft) 97,87 %
15.11.2018 10:30 7,8 C 11,1 C 6,7 C 93 % 1024,3 hPa 0,0 l/m 2 min 0 min 238 W/m 16,1 km/h (3 Bft) 97,87 %
15.11.2018 10:32 7,8 C 10,0 C 6,7 C 93 % 1024,3 hPa 0,0 l/m 2 min 0 min 237 W/m 22,5 km/h (4 Bft) 97,87 %
15.11.2018 10:34 7,9 C 10,0 C 6,7 C 92 % 1024,3 hPa 0,0 l/m 2 min 0 min 188 W/m 22,5 km/h (4 Bft) 97,83 %
15.11.2018 10:36 7,9 C 10,0 C 6,7 C 92 % 1024,3 hPa 0,0 l/m 2 min 0 min 251 W/m 16,1 km/h (3 Bft) 97,87 %
15.11.2018 10:38 7,9 C 10,0 C 6,7 C 92 % 1024,3 hPa 0,0 l/m 2 min 0 min 207 W/m 19,3 km/h (3 Bft) 97,87 %
15.11.2018 10:40 7,9 C 9,4 C 6,7 C 91 % 1024,3 hPa 0,0 l/m 2 min 0 min 190 W/m 16,1 km/h (3 Bft) 97,87 %
15.11.2018 10:42 8,0 C 10,6 C 6,7 C 91 % 1024,3 hPa 0,0 l/m 2 min 0 min 187 W/m 16,1 km/h (3 Bft) 97,87 %
15.11.2018 10:44 8,0 C 11,7 C 6,7 C 91 % 1024,4 hPa 0,0 l/m 2 min 0 min 187 W/m 22,5 km/h (4 Bft) 97,87 %
15.11.2018 10:46 8,1 C 11,1 C 6,7 C 90 % 1024,3 hPa 0,0 l/m 2 min 0 min 189 W/m 22,5 km/h (4 Bft) 97,83 %
15.11.2018 10:48 8,1 C 10,6 C 6,7 C 90 % 1024,3 hPa 0,0 l/m 2 min 0 min 195 W/m 25,7 km/h (4 Bft) 97,87 %
15.11.2018 10:50 8,2 C 10,6 C 6,7 C 90 % 1024,3 hPa 0,0 l/m 2 min 0 min 232 W/m 29,0 km/h (5 Bft) 97,87 %
15.11.2018 10:52 8,2 C 10,6 C 6,7 C 90 % 1024,4 hPa 0,0 l/m 2 min 0 min 225 W/m 22,5 km/h (4 Bft) 100,00 %
15.11.2018 10:54 8,2 C 11,1 C 6,7 C 89 % 1024,4 hPa 0,0 l/m 2 min 0 min 245 W/m 16,1 km/h (3 Bft) 100,00 %
15.11.2018 10:56 8,3 C 11,1 C 6,7 C 89 % 1024,4 hPa 0,0 l/m 2 min 0 min 238 W/m 16,1 km/h (3 Bft) 100,00 %
15.11.2018 10:58 8,3 C 10,6 C 6,7 C 89 % 1024,3 hPa 0,0 l/m 2 min 0 min 299 W/m 22,5 km/h (4 Bft) 100,00 %
15.11.2018 11:00 8,3 C 10,6 C 7,2 C 89 % 1024,3 hPa 0,0 l/m 2 min 0 min 215 W/m 25,7 km/h (4 Bft) 97,87 %
15.11.2018 11:02 8,4 C 11,7 C 7,2 C 89 % 1024,3 hPa 0,0 l/m 2 min 0 min 232 W/m 16,1 km/h (3 Bft) 97,62 %
15.11.2018 11:04 8,4 C 11,7 C 7,2 C 88 % 1024,2 hPa 0,0 l/m 2 min 0 min 280 W/m 19,3 km/h (3 Bft) 98,08 %
15.11.2018 11:06 8,5 C 11,7 C 7,2 C 88 % 1024,2 hPa 0,0 l/m 2 min 0 min 311 W/m 22,5 km/h (4 Bft) 100,00 %
15.11.2018 11:08 8,5 C 12,2 C 6,7 C 88 % 1024,2 hPa 0,0 l/m 2 min 0 min 326 W/m 22,5 km/h (4 Bft) 97,92 %
15.11.2018 11:10 8,6 C 12,8 C 6,7 C 87 % 1024,2 hPa 0,0 l/m 2 min 0 min 339 W/m 22,5 km/h (4 Bft) 100,00 %
15.11.2018 11:12 8,6 C 12,8 C 6,7 C 87 % 1024,2 hPa 0,0 l/m 2 min 0 min 342 W/m 16,1 km/h (3 Bft) 100,00 %
15.11.2018 11:14 8,7 C 13,3 C 7,2 C 87 % 1024,2 hPa 0,0 l/m 2 min 0 min 344 W/m 25,7 km/h (4 Bft) 100,00 %
15.11.2018 11:16 8,7 C 12,8 C 7,2 C 87 % 1024,2 hPa 0,0 l/m 2 min 0 min 347 W/m 25,7 km/h (4 Bft) 100,00 %
15.11.2018 11:18 8,7 C 12,2 C 7,2 C 87 % 1024,2 hPa 0,2 l/m 2 min 0 min 350 W/m 32,2 km/h (5 Bft) 97,87 %
15.11.2018 11:20 8,8 C 12,2 C 7,2 C 86 % 1024,2 hPa 0,0 l/m 2 min 0 min 350 W/m 29,0 km/h (5 Bft) 100,00 %
15.11.2018 11:22 8,8 C 12,8 C 7,2 C 86 % 1024,2 hPa 0,0 l/m 2 min 0 min 349 W/m 16,1 km/h (3 Bft) 100,00 %
15.11.2018 11:24 8,9 C 12,2 C 7,2 C 86 % 1024,2 hPa 0,0 l/m 2 min 0 min 348 W/m 22,5 km/h (4 Bft) 100,00 %
15.11.2018 11:26 8,9 C 12,8 C 7,2 C 85 % 1024,2 hPa 0,0 l/m 2 min 0 min 351 W/m 22,5 km/h (4 Bft) 100,00 %
15.11.2018 11:28 8,9 C 12,8 C 7,2 C 85 % 1024,2 hPa 0,0 l/m 2 min 0 min 355 W/m 22,5 km/h (4 Bft) 100,00 %
15.11.2018 11:30 9,0 C 12,2 C 7,2 C 85 % 1024,1 hPa 0,0 l/m 2 min 0 min 355 W/m 25,7 km/h (4 Bft) 100,00 %
15.11.2018 11:32 9,0 C 13,9 C 7,2 C 85 % 1024,1 hPa 0,0 l/m 2 min 0 min 357 W/m 19,3 km/h (3 Bft) 100,00 %
15.11.2018 11:34 9,1 C 12,8 C 7,2 C 85 % 1024,1 hPa 0,0 l/m 2 min 0 min 361 W/m 19,3 km/h (3 Bft) 100,00 %
15.11.2018 11:36 9,1 C 13,3 C 7,2 C 85 % 1024,1 hPa 0,0 l/m 2 min 0 min 362 W/m 22,5 km/h (4 Bft) 97,87 %
15.11.2018 11:38 9,2 C 13,3 C 7,2 C 85 % 1024,1 hPa 0,0 l/m 2 min 0 min 365 W/m 22,5 km/h (4 Bft) 95,74 %
15.11.2018 11:40 9,2 C 13,3 C 7,2 C 85 % 1024,1 hPa 0,0 l/m 2 min 0 min 364 W/m 19,3 km/h (3 Bft) 97,87 %
15.11.2018 11:42 9,2 C 12,2 C 7,2 C 85 % 1024,1 hPa 0,0 l/m 2 min 0 min 343 W/m 25,7 km/h (4 Bft) 97,87 %
15.11.2018 11:44 9,2 C 12,8 C 7,2 C 84 % 1024,1 hPa 0,0 l/m 2 min 0 min 360 W/m 25,7 km/h (4 Bft) 97,83 %
15.11.2018 11:46 9,3 C 13,3 C 7,2 C 84 % 1024,0 hPa 0,0 l/m 2 min 0 min 355 W/m 25,7 km/h (4 Bft) 97,87 %
15.11.2018 11:48 9,3 C 12,8 C 7,2 C 84 % 1024,0 hPa 0,0 l/m 2 min 0 min 365 W/m 22,5 km/h (4 Bft) 97,87 %
15.11.2018 11:50 9,3 C 11,1 C 7,2 C 84 % 1024,0 hPa 0,0 l/m 2 min 0 min 372 W/m 25,7 km/h (4 Bft) 97,87 %
15.11.2018 11:52 9,3 C 11,7 C 7,2 C 83 % 1024,0 hPa 0,0 l/m 2 min 0 min 355 W/m 22,5 km/h (4 Bft) 97,87 %
15.11.2018 11:54 9,3 C 12,2 C 7,2 C 83 % 1024,0 hPa 0,0 l/m 2 min 0 min 365 W/m 19,3 km/h (3 Bft) 95,74 %
15.11.2018 11:56 9,3 C 12,2 C 7,2 C 83 % 1024,0 hPa 0,0 l/m 2 min 0 min 367 W/m 19,3 km/h (3 Bft) 95,65 %
15.11.2018 11:58 9,3 C 13,3 C 7,8 C 83 % 1024,0 hPa 0,0 l/m 2 min 0 min 381 W/m 19,3 km/h (3 Bft) 97,87 %
15.11.2018 12:00 9,4 C 13,9 C 7,8 C 84 % 1024,0 hPa 0,0 l/m 2 min 0 min 381 W/m 16,1 km/h (3 Bft) 97,87 %
15.11.2018 12:02 9,4 C 13,9 C 7,8 C 84 % 1023,9 hPa 0,0 l/m 2 min 0 min 381 W/m 22,5 km/h (4 Bft) 95,74 %
15.11.2018 12:04 9,4 C 13,9 C 7,8 C 83 % 1023,9 hPa 0,0 l/m 2 min 0 min 381 W/m 29,0 km/h (5 Bft) 97,87 %
15.11.2018 12:08 9,5 C 13,3 C 8,3 C 83 % 1023,9 hPa 0,0 l/m 4 min 0 min 381 W/m 25,7 km/h (4 Bft) 96,77 %
15.11.2018 12:10 9,6 C 13,3 C 9,4 C 83 % 1023,9 hPa 0,0 l/m 2 min 0 min 383 W/m 16,1 km/h (3 Bft) 97,87 %
15.11.2018 12:12 9,6 C 13,3 C 11,7 C 83 % 1023,9 hPa 0,0 l/m 2 min 0 min 382 W/m 19,3 km/h (3 Bft) 97,87 %
15.11.2018 12:14 9,6 C 13,3 C 11,7 C 83 % 1023,9 hPa 0,0 l/m 2 min 0 min 382 W/m 16,1 km/h (3 Bft) 95,74 %
15.11.2018 12:16 9,7 C 13,9 C 10,6 C 83 % 1023,8 hPa 0,0 l/m 2 min 0 min 384 W/m 12,9 km/h (3 Bft) 97,87 %
15.11.2018 12:18 9,7 C 12,8 C 8,9 C 82 % 1023,8 hPa 0,0 l/m 2 min 0 min 381 W/m 25,7 km/h (4 Bft) 100,00 %
15.11.2018 12:20 9,7 C 13,3 C 8,3 C 82 % 1023,8 hPa 0,0 l/m 2 min 0 min 382 W/m 22,5 km/h (4 Bft) 100,00 %
15.11.2018 12:22 9,7 C 13,9 C 8,3 C 82 % 1023,8 hPa 0,0 l/m 2 min 0 min 386 W/m 19,3 km/h (3 Bft) 100,00 %
15.11.2018 12:24 9,7 C 13,9 C 8,3 C 82 % 1023,8 hPa 0,0 l/m 2 min 0 min 387 W/m 22,5 km/h (4 Bft) 97,87 %
15.11.2018 12:26 9,7 C 13,9 C 7,8 C 82 % 1023,7 hPa 0,0 l/m 2 min 0 min 386 W/m 25,7 km/h (4 Bft) 97,87 %
15.11.2018 12:28 9,8 C 14,4 C 7,8 C 82 % 1023,7 hPa 0,0 l/m 2 min 0 min 386 W/m 12,9 km/h (3 Bft) 100,00 %
15.11.2018 12:30 9,8 C 14,4 C 7,8 C 82 % 1023,7 hPa 0,0 l/m 2 min 0 min 384 W/m 22,5 km/h (4 Bft) 97,87 %
15.11.2018 12:32 9,8 C 13,9 C 7,8 C 82 % 1023,7 hPa 0,0 l/m 2 min 0 min 386 W/m 25,7 km/h (4 Bft) 97,83 %
15.11.2018 12:34 9,9 C 14,4 C 7,8 C 82 % 1023,6 hPa 0,0 l/m 2 min 0 min 384 W/m 16,1 km/h (3 Bft) 100,00 %
15.11.2018 12:36 9,9 C 14,4 C 7,8 C 82 % 1023,7 hPa 0,0 l/m 2 min 0 min 386 W/m 16,1 km/h (3 Bft) 100,00 %
15.11.2018 12:38 9,9 C 14,4 C 7,8 C 81 % 1023,7 hPa 0,0 l/m 2 min 0 min 385 W/m 19,3 km/h (3 Bft) 100,00 %
15.11.2018 12:40 9,9 C 14,4 C 7,8 C 81 % 1023,6 hPa 0,0 l/m 2 min 0 min 386 W/m 16,1 km/h (3 Bft) 97,87 %
15.11.2018 12:42 10,0 C 14,4 C 8,3 C 81 % 1023,6 hPa 0,0 l/m 2 min 0 min 384 W/m 22,5 km/h (4 Bft) 100,00 %
15.11.2018 12:44 10,1 C 14,4 C 8,3 C 81 % 1023,6 hPa 0,0 l/m 2 min 0 min 383 W/m 16,1 km/h (3 Bft) 100,00 %
15.11.2018 12:46 10,1 C 13,9 C 8,3 C 81 % 1023,7 hPa 0,0 l/m 2 min 0 min 383 W/m 22,5 km/h (4 Bft) 97,87 %
15.11.2018 12:48 10,1 C 14,4 C 8,3 C 81 % 1023,7 hPa 0,0 l/m 2 min 0 min 384 W/m 19,3 km/h (3 Bft) 95,74 %
15.11.2018 12:50 10,2 C 13,9 C 8,3 C 80 % 1023,7 hPa 0,0 l/m 2 min 0 min 382 W/m 25,7 km/h (4 Bft) 95,74 %
15.11.2018 12:52 10,2 C 14,4 C 8,3 C 80 % 1023,6 hPa 0,0 l/m 2 min 0 min 380 W/m 19,3 km/h (3 Bft) 97,87 %
15.11.2018 12:54 10,2 C 13,9 C 8,3 C 80 % 1023,6 hPa 0,0 l/m 2 min 0 min 380 W/m 22,5 km/h (4 Bft) 95,65 %
15.11.2018 12:56 10,2 C 13,9 C 8,3 C 80 % 1023,6 hPa 0,0 l/m 2 min 0 min 380 W/m 22,5 km/h (4 Bft) 95,74 %
15.11.2018 12:58 10,2 C 14,4 C 8,3 C 79 % 1023,6 hPa 0,0 l/m 2 min 0 min 379 W/m 19,3 km/h (3 Bft) 91,49 %
15.11.2018 13:00 10,2 C 13,9 C 8,3 C 79 % 1023,6 hPa 0,0 l/m 2 min 0 min 377 W/m 16,1 km/h (3 Bft) 95,74 %
15.11.2018 13:02 10,2 C 13,9 C 8,3 C 79 % 1023,6 hPa 0,0 l/m 2 min 0 min 376 W/m 22,5 km/h (4 Bft) 95,74 %
15.11.2018 13:04 10,2 C 13,9 C 8,3 C 79 % 1023,5 hPa 0,0 l/m 2 min 0 min 374 W/m 22,5 km/h (4 Bft) 95,74 %
15.11.2018 13:06 10,2 C 14,4 C 8,3 C 79 % 1023,6 hPa 0,0 l/m 2 min 0 min 374 W/m 19,3 km/h (3 Bft) 95,65 %
15.11.2018 13:08 10,3 C 13,9 C 8,3 C 79 % 1023,6 hPa 0,0 l/m 2 min 0 min 374 W/m 22,5 km/h (4 Bft) 95,74 %
15.11.2018 13:10 10,3 C 13,9 C 8,3 C 79 % 1023,6 hPa 0,0 l/m 2 min 0 min 373 W/m 12,9 km/h (3 Bft) 95,74 %
15.11.2018 13:12 10,3 C 13,9 C 8,3 C 79 % 1023,6 hPa 0,0 l/m 2 min 0 min 371 W/m 16,1 km/h (3 Bft) 95,74 %
15.11.2018 13:14 10,3 C 13,9 C 8,3 C 79 % 1023,6 hPa 0,0 l/m 2 min 0 min 368 W/m 29,0 km/h (5 Bft) 95,74 %
15.11.2018 13:16 10,3 C 14,4 C 8,3 C 79 % 1023,6 hPa 0,0 l/m 2 min 0 min 367 W/m 22,5 km/h (4 Bft) 93,62 %
15.11.2018 13:18 10,3 C 13,9 C 8,3 C 80 % 1023,5 hPa 0,0 l/m 2 min 0 min 366 W/m 22,5 km/h (4 Bft) 95,65 %
15.11.2018 13:20 10,3 C 13,9 C 8,3 C 79 % 1023,5 hPa 0,0 l/m 2 min 0 min 364 W/m 25,7 km/h (4 Bft) 95,74 %
15.11.2018 13:22 10,3 C 13,9 C 8,3 C 79 % 1023,5 hPa 0,0 l/m 2 min 0 min 360 W/m 19,3 km/h (3 Bft) 95,74 %
15.11.2018 13:24 10,3 C 13,9 C 8,3 C 80 % 1023,4 hPa 0,0 l/m 2 min 0 min 359 W/m 19,3 km/h (3 Bft) 93,62 %
15.11.2018 13:26 10,3 C 13,3 C 8,3 C 79 % 1023,5 hPa 0,0 l/m 2 min 0 min 356 W/m 25,7 km/h (4 Bft) 95,74 %
15.11.2018 13:28 10,3 C 13,3 C 8,3 C 79 % 1023,4 hPa 0,0 l/m 2 min 0 min 355 W/m 22,5 km/h (4 Bft) 93,62 %
15.11.2018 13:30 10,3 C 14,4 C 8,3 C 79 % 1023,4 hPa 0,0 l/m 2 min 0 min 353 W/m 16,1 km/h (3 Bft) 97,83 %
15.11.2018 13:32 10,3 C 14,4 C 8,3 C 80 % 1023,4 hPa 0,0 l/m 2 min 0 min 352 W/m 22,5 km/h (4 Bft) 97,87 %
15.11.2018 13:34 10,3 C 14,4 C 8,9 C 80 % 1023,4 hPa 0,0 l/m 2 min 0 min 352 W/m 19,3 km/h (3 Bft) 97,87 %
15.11.2018 13:36 10,4 C 14,4 C 8,9 C 80 % 1023,4 hPa 0,0 l/m 2 min 0 min 350 W/m 16,1 km/h (3 Bft) 95,74 %
15.11.2018 13:38 10,4 C 14,4 C 8,9 C 79 % 1023,4 hPa 0,0 l/m 2 min 0 min 347 W/m 22,5 km/h (4 Bft) 97,87 %
15.11.2018 13:40 10,4 C 13,9 C 8,9 C 79 % 1023,4 hPa 0,0 l/m 2 min 0 min 345 W/m 22,5 km/h (4 Bft) 97,87 %
15.11.2018 13:42 10,4 C 14,4 C 8,9 C 79 % 1023,4 hPa 0,0 l/m 2 min 0 min 343 W/m 22,5 km/h (4 Bft) 97,83 %
15.11.2018 13:44 10,4 C 13,9 C 8,9 C 79 % 1023,3 hPa 0,0 l/m 2 min 0 min 340 W/m 19,3 km/h (3 Bft) 97,87 %
15.11.2018 13:46 10,5 C 13,9 C 8,9 C 79 % 1023,3 hPa 0,0 l/m 2 min 0 min 338 W/m 19,3 km/h (3 Bft) 93,62 %
15.11.2018 13:48 10,5 C 13,9 C 8,9 C 79 % 1023,3 hPa 0,0 l/m 2 min 0 min 337 W/m 16,1 km/h (3 Bft) 97,87 %
15.11.2018 13:50 10,5 C 13,9 C 8,9 C 79 % 1023,3 hPa 0,0 l/m 2 min 0 min 334 W/m 22,5 km/h (4 Bft) 97,87 %
15.11.2018 13:52 10,5 C 14,4 C 8,9 C 79 % 1023,3 hPa 0,0 l/m 2 min 0 min 331 W/m 19,3 km/h (3 Bft) 97,83 %
15.11.2018 13:54 10,6 C 14,4 C 8,9 C 79 % 1023,3 hPa 0,0 l/m 2 min 0 min 329 W/m 22,5 km/h (4 Bft) 97,87 %
15.11.2018 13:56 10,6 C 15,0 C 8,9 C 79 % 1023,4 hPa 0,0 l/m 2 min 0 min 327 W/m 12,9 km/h (3 Bft) 100,00 %
15.11.2018 13:58 10,6 C 15,0 C 8,9 C 79 % 1023,3 hPa 0,0 l/m 2 min 0 min 324 W/m 12,9 km/h (3 Bft) 100,00 %
15.11.2018 14:00 10,6 C 14,4 C 8,9 C 79 % 1023,3 hPa 0,0 l/m 2 min 0 min 322 W/m 25,7 km/h (4 Bft) 100,00 %
15.11.2018 14:02 10,6 C 14,4 C 8,9 C 78 % 1023,3 hPa 0,0 l/m 2 min 0 min 319 W/m 16,1 km/h (3 Bft) 100,00 %
15.11.2018 14:04 10,6 C 13,3 C 8,3 C 78 % 1023,3 hPa 0,0 l/m 2 min 0 min 316 W/m 25,7 km/h (4 Bft) 97,87 %
15.11.2018 14:06 10,6 C 13,9 C 8,3 C 78 % 1023,3 hPa 0,0 l/m 2 min 0 min 314 W/m 25,7 km/h (4 Bft) 97,83 %
15.11.2018 14:08 10,6 C 14,4 C 8,3 C 78 % 1023,2 hPa 0,0 l/m 2 min 0 min 311 W/m 19,3 km/h (3 Bft) 97,87 %
15.11.2018 14:10 10,6 C 14,4 C 8,3 C 78 % 1023,3 hPa 0,0 l/m 2 min 0 min 309 W/m 12,9 km/h (3 Bft) 97,87 %
15.11.2018 14:12 10,6 C 13,9 C 8,3 C 78 % 1023,2 hPa 0,0 l/m 2 min 0 min 306 W/m 19,3 km/h (3 Bft) 97,87 %
15.11.2018 14:14 10,6 C 14,4 C 8,3 C 78 % 1023,3 hPa 0,0 l/m 2 min 0 min 302 W/m 19,3 km/h (3 Bft) 95,74 %
15.11.2018 14:16 10,6 C 13,9 C 8,3 C 78 % 1023,3 hPa 0,0 l/m 2 min 0 min 300 W/m 22,5 km/h (4 Bft) 97,87 %
15.11.2018 14:18 10,6 C 13,9 C 8,3 C 78 % 1023,3 hPa 0,0 l/m 2 min 0 min 296 W/m 19,3 km/h (3 Bft) 97,83 %
15.11.2018 14:20 10,6 C 13,9 C 8,3 C 78 % 1023,3 hPa 0,0 l/m 2 min 0 min 294 W/m 22,5 km/h (4 Bft) 97,87 %
15.11.2018 14:22 10,6 C 13,3 C 8,3 C 78 % 1023,3 hPa 0,0 l/m 2 min 0 min 290 W/m 22,5 km/h (4 Bft) 95,74 %
15.11.2018 14:24 10,5 C 13,9 C 8,3 C 77 % 1023,3 hPa 0,0 l/m 2 min 0 min 287 W/m 12,9 km/h (3 Bft) 97,87 %
15.11.2018 14:26 10,5 C 13,9 C 8,3 C 78 % 1023,3 hPa 0,0 l/m 2 min 0 min 283 W/m 19,3 km/h (3 Bft) 95,74 %
15.11.2018 14:28 10,5 C 13,9 C 8,3 C 78 % 1023,3 hPa 0,0 l/m 2 min 0 min 279 W/m 22,5 km/h (4 Bft) 97,83 %
15.11.2018 14:30 10,5 C 13,9 C 8,3 C 78 % 1023,2 hPa 0,0 l/m 2 min 0 min 276 W/m 16,1 km/h (3 Bft) 97,87 %
15.11.2018 14:32 10,4 C 13,9 C 8,3 C 78 % 1023,2 hPa 0,0 l/m 2 min 0 min 273 W/m 16,1 km/h (3 Bft) 93,62 %
15.11.2018 14:34 10,4 C 13,9 C 8,3 C 78 % 1023,3 hPa 0,0 l/m 2 min 0 min 269 W/m 25,7 km/h (4 Bft) 97,87 %
15.11.2018 14:36 10,4 C 13,9 C 8,3 C 78 % 1023,3 hPa 0,0 l/m 2 min 0 min 265 W/m 19,3 km/h (3 Bft) 97,87 %
15.11.2018 14:38 10,4 C 13,9 C 8,3 C 78 % 1023,3 hPa 0,0 l/m 2 min 0 min 262 W/m 16,1 km/h (3 Bft) 97,87 %
15.11.2018 14:40 10,4 C 13,9 C 8,3 C 78 % 1023,3 hPa 0,0 l/m 2 min 0 min 258 W/m 16,1 km/h (3 Bft) 97,83 %
15.11.2018 14:42 10,4 C 13,9 C 8,3 C 78 % 1023,3 hPa 0,0 l/m 2 min 0 min 254 W/m 19,3 km/h (3 Bft) 97,87 %
15.11.2018 14:44 10,4 C 13,3 C 8,3 C 78 % 1023,3 hPa 0,0 l/m 2 min 0 min 250 W/m 16,1 km/h (3 Bft) 97,87 %
15.11.2018 14:46 10,3 C 12,8 C 8,3 C 78 % 1023,3 hPa 0,0 l/m 2 min 0 min 248 W/m 22,5 km/h (4 Bft) 97,87 %
15.11.2018 14:48 10,3 C 11,7 C 8,3 C 78 % 1023,3 hPa 0,0 l/m 2 min 0 min 244 W/m 19,3 km/h (3 Bft) 97,44 %
15.11.2018 14:50 10,3 C 10,6 C 8,3 C 78 % 1023,4 hPa 0,0 l/m 2 min 0 min 239 W/m 19,3 km/h (3 Bft) 95,74 %
15.11.2018 14:52 10,2 C 9,4 C 7,8 C 78 % 1023,4 hPa 0,0 l/m 2 min 0 min 235 W/m 19,3 km/h (3 Bft) 100,00 %
15.11.2018 14:54 10,1 C 9,4 C 7,8 C 78 % 1023,4 hPa 0,0 l/m 2 min 0 min 181 W/m 22,5 km/h (4 Bft) 100,00 %
15.11.2018 14:56 10,0 C 8,9 C 7,8 C 78 % 1023,4 hPa 0,0 l/m 2 min 0 min 145 W/m 12,9 km/h (3 Bft) 97,87 %
15.11.2018 14:58 9,9 C 8,9 C 7,8 C 78 % 1023,4 hPa 0,0 l/m 0 min 0 min 96 W/m 19,3 km/h (3 Bft) 100,00 %
15.11.2018 15:00 9,9 C 8,9 C 7,8 C 78 % 1023,4 hPa 0,0 l/m 0 min 0 min 44 W/m 16,1 km/h (3 Bft) 100,00 %
15.11.2018 15:02 9,8 C 8,9 C 7,8 C 79 % 1023,4 hPa 0,0 l/m 0 min 0 min 42 W/m 12,9 km/h (3 Bft) 97,87 %
15.11.2018 15:04 9,8 C 8,9 C 7,8 C 79 % 1023,4 hPa 0,0 l/m 0 min 0 min 42 W/m 12,9 km/h (3 Bft) 100,00 %
15.11.2018 15:06 9,7 C 8,9 C 7,8 C 79 % 1023,4 hPa 0,0 l/m 0 min 0 min 41 W/m 19,3 km/h (3 Bft) 97,87 %
15.11.2018 15:08 9,7 C 8,9 C 7,8 C 79 % 1023,3 hPa 0,0 l/m 0 min 0 min 40 W/m 22,5 km/h (4 Bft) 100,00 %
15.11.2018 15:10 9,6 C 8,9 C 7,8 C 79 % 1023,4 hPa 0,0 l/m 0 min 0 min 40 W/m 25,7 km/h (4 Bft) 100,00 %
15.11.2018 15:12 9,6 C 8,9 C 7,8 C 80 % 1023,4 hPa 0,0 l/m 0 min 0 min 39 W/m 19,3 km/h (3 Bft) 100,00 %
15.11.2018 15:14 9,5 C 8,9 C 7,8 C 80 % 1023,4 hPa 0,0 l/m 0 min 0 min 39 W/m 25,7 km/h (4 Bft) 100,00 %
15.11.2018 15:16 9,4 C 8,3 C 7,8 C 80 % 1023,4 hPa 0,0 l/m 0 min 0 min 39 W/m 16,1 km/h (3 Bft) 100,00 %
15.11.2018 15:18 9,4 C 8,3 C 7,8 C 80 % 1023,3 hPa 0,0 l/m 0 min 0 min 38 W/m 16,1 km/h (3 Bft) 97,87 %
15.11.2018 15:20 9,3 C 8,3 C 7,8 C 80 % 1023,3 hPa 0,0 l/m 0 min 0 min 37 W/m 19,3 km/h (3 Bft) 100,00 %
15.11.2018 15:22 9,3 C 8,3 C 7,8 C 80 % 1023,3 hPa 0,0 l/m 0 min 0 min 36 W/m 22,5 km/h (4 Bft) 97,87 %
15.11.2018 15:24 9,2 C 8,3 C 7,8 C 80 % 1023,3 hPa 0,0 l/m 0 min 0 min 35 W/m 22,5 km/h (4 Bft) 97,87 %
15.11.2018 15:26 9,2 C 8,3 C 7,8 C 81 % 1023,3 hPa 0,0 l/m 0 min 0 min 35 W/m 22,5 km/h (4 Bft) 97,87 %
15.11.2018 15:28 9,2 C 8,3 C 7,8 C 81 % 1023,3 hPa 0,0 l/m 0 min 0 min 35 W/m 16,1 km/h (3 Bft) 97,83 %
15.11.2018 15:30 9,1 C 8,3 C 7,8 C 81 % 1023,3 hPa 0,0 l/m 0 min 0 min 33 W/m 16,1 km/h (3 Bft) 95,74 %
15.11.2018 15:32 9,1 C 8,3 C 7,2 C 81 % 1023,3 hPa 0,0 l/m 0 min 0 min 33 W/m 12,9 km/h (3 Bft) 97,87 %
15.11.2018 15:34 9,1 C 8,3 C 7,2 C 81 % 1023,3 hPa 0,0 l/m 0 min 0 min 33 W/m 12,9 km/h (3 Bft) 97,87 %
15.11.2018 15:36 9,0 C 8,3 C 7,2 C 81 % 1023,3 hPa 0,0 l/m 0 min 0 min 32 W/m 19,3 km/h (3 Bft) 95,74 %
15.11.2018 15:38 9,0 C 8,3 C 7,2 C 81 % 1023,3 hPa 0,0 l/m 0 min 0 min 32 W/m 16,1 km/h (3 Bft) 97,83 %
15.11.2018 15:40 8,9 C 8,3 C 7,2 C 81 % 1023,3 hPa 0,0 l/m 0 min 0 min 30 W/m 16,1 km/h (3 Bft) 97,87 %
15.11.2018 15:42 8,9 C 8,3 C 7,2 C 81 % 1023,3 hPa 0,0 l/m 0 min 0 min 30 W/m 16,1 km/h (3 Bft) 97,87 %
15.11.2018 15:44 8,9 C 7,8 C 7,2 C 81 % 1023,3 hPa 0,0 l/m 0 min 0 min 35 W/m 19,3 km/h (3 Bft) 91,49 %
15.11.2018 15:46 8,8 C 7,8 C 7,2 C 82 % 1023,3 hPa 0,0 l/m 0 min 0 min 35 W/m 16,1 km/h (3 Bft) 91,49 %
15.11.2018 15:48 8,8 C 7,8 C 7,2 C 82 % 1023,3 hPa 0,0 l/m 0 min 0 min 28 W/m 16,1 km/h (3 Bft) 95,74 %
15.11.2018 15:50 8,7 C 7,8 C 7,2 C 82 % 1023,3 hPa 0,0 l/m 0 min 0 min 26 W/m 9,7 km/h (2 Bft) 95,65 %
15.11.2018 15:52 8,7 C 7,8 C 7,2 C 82 % 1023,3 hPa 0,0 l/m 0 min 0 min 26 W/m 9,7 km/h (2 Bft) 95,74 %
15.11.2018 15:54 8,7 C 7,8 C 7,2 C 82 % 1023,3 hPa 0,0 l/m 0 min 0 min 25 W/m 12,9 km/h (3 Bft) 95,74 %
15.11.2018 15:56 8,7 C 7,8 C 7,2 C 82 % 1023,1 hPa 0,0 l/m 0 min 0 min 25 W/m 9,7 km/h (2 Bft) 95,74 %
15.11.2018 15:58 8,7 C 7,8 C 7,2 C 82 % 1023,1 hPa 0,0 l/m 0 min 0 min 25 W/m 12,9 km/h (3 Bft) 95,74 %
15.11.2018 16:00 8,7 C 7,8 C 7,2 C 83 % 1023,2 hPa 0,0 l/m 0 min 0 min 24 W/m 12,9 km/h (3 Bft) 95,74 %
15.11.2018 16:02 8,6 C 7,8 C 7,2 C 83 % 1023,2 hPa 0,0 l/m 0 min 0 min 23 W/m 9,7 km/h (2 Bft) 95,65 %
15.11.2018 16:04 8,6 C 7,8 C 7,2 C 83 % 1023,2 hPa 0,0 l/m 0 min 0 min 22 W/m 9,7 km/h (2 Bft) 95,74 %
15.11.2018 16:06 8,5 C 7,8 C 6,7 C 83 % 1023,3 hPa 0,0 l/m 0 min 0 min 21 W/m 9,7 km/h (2 Bft) 95,74 %
15.11.2018 16:08 8,5 C 7,8 C 6,7 C 83 % 1023,3 hPa 0,0 l/m 0 min 0 min 21 W/m 9,7 km/h (2 Bft) 97,87 %
15.11.2018 16:10 8,4 C 7,2 C 6,7 C 83 % 1023,3 hPa 0,0 l/m 0 min 0 min 19 W/m 6,4 km/h (2 Bft) 95,74 %
15.11.2018 16:12 8,4 C 7,2 C 6,7 C 83 % 1023,3 hPa 0,0 l/m 0 min 0 min 19 W/m 9,7 km/h (2 Bft) 97,87 %
15.11.2018 16:14 8,4 C 7,2 C 6,7 C 83 % 1023,3 hPa 0,0 l/m 0 min 0 min 18 W/m 12,9 km/h (3 Bft) 95,65 %
15.11.2018 16:16 8,3 C 7,2 C 6,7 C 83 % 1023,3 hPa 0,0 l/m 0 min 0 min 18 W/m 16,1 km/h (3 Bft) 95,74 %
15.11.2018 16:18 8,3 C 7,2 C 6,7 C 83 % 1023,3 hPa 0,0 l/m 0 min 0 min 16 W/m 9,7 km/h (2 Bft) 97,87 %
15.11.2018 16:20 8,3 C 7,2 C 6,7 C 84 % 1023,3 hPa 0,0 l/m 0 min 0 min 16 W/m 9,7 km/h (2 Bft) 97,87 %
15.11.2018 16:22 8,2 C 7,2 C 6,7 C 84 % 1023,2 hPa 0,0 l/m 0 min 0 min 14 W/m 12,9 km/h (3 Bft) 97,87 %
15.11.2018 16:24 8,2 C 7,2 C 6,7 C 84 % 1023,3 hPa 0,0 l/m 0 min 0 min 14 W/m 9,7 km/h (2 Bft) 97,87 %
15.11.2018 16:26 8,2 C 7,2 C 6,7 C 84 % 1023,2 hPa 0,0 l/m 0 min 0 min 12 W/m 12,9 km/h (3 Bft) 97,83 %
15.11.2018 16:28 8,1 C 7,2 C 6,7 C 84 % 1023,3 hPa 0,0 l/m 0 min 0 min 12 W/m 12,9 km/h (3 Bft) 95,74 %
15.11.2018 16:30 8,1 C 7,2 C 6,1 C 84 % 1023,3 hPa 0,0 l/m 0 min 0 min 11 W/m 12,9 km/h (3 Bft) 97,87 %
15.11.2018 16:32 8,0 C 7,2 C 6,1 C 84 % 1023,3 hPa 0,0 l/m 0 min 0 min 11 W/m 12,9 km/h (3 Bft) 95,74 %
15.11.2018 16:34 7,9 C 7,2 C 6,1 C 84 % 1023,3 hPa 0,0 l/m 0 min 0 min 10 W/m 12,9 km/h (3 Bft) 100,00 %
15.11.2018 16:36 7,9 C 6,7 C 6,1 C 84 % 1023,3 hPa 0,0 l/m 0 min 0 min 9 W/m 25,7 km/h (4 Bft) 97,87 %
15.11.2018 16:38 7,9 C 6,7 C 6,1 C 84 % 1023,3 hPa 0,0 l/m 0 min 0 min 8 W/m 12,9 km/h (3 Bft) 100,00 %
15.11.2018 16:40 7,8 C 6,7 C 6,1 C 84 % 1023,3 hPa 0,0 l/m 0 min 0 min 7 W/m 16,1 km/h (3 Bft) 97,87 %
15.11.2018 16:42 7,8 C 6,7 C 6,1 C 84 % 1023,2 hPa 0,0 l/m 0 min 0 min 7 W/m 22,5 km/h (4 Bft) 100,00 %
15.11.2018 16:44 7,7 C 6,7 C 6,1 C 84 % 1023,2 hPa 0,0 l/m 0 min 0 min 5 W/m 22,5 km/h (4 Bft) 100,00 %
15.11.2018 16:46 7,7 C 6,7 C 6,1 C 84 % 1023,3 hPa 0,0 l/m 0 min 0 min 5 W/m 16,1 km/h (3 Bft) 100,00 %
15.11.2018 16:48 7,7 C 6,7 C 6,1 C 85 % 1023,3 hPa 0,0 l/m 0 min 0 min 4 W/m 16,1 km/h (3 Bft) 97,83 %
15.11.2018 16:50 7,6 C 6,7 C 6,1 C 85 % 1023,4 hPa 0,0 l/m 0 min 0 min 0 W/m 19,3 km/h (3 Bft) 97,87 %
15.11.2018 16:52 7,6 C 6,7 C 6,1 C 85 % 1023,3 hPa 0,0 l/m 0 min 0 min 0 W/m 16,1 km/h (3 Bft) 100,00 %
15.11.2018 16:54 7,6 C 6,7 C 6,1 C 85 % 1023,3 hPa 0,0 l/m 0 min 0 min 0 W/m 9,7 km/h (2 Bft) 100,00 %
15.11.2018 16:56 7,5 C 6,7 C 6,1 C 85 % 1023,3 hPa 0,0 l/m 0 min 0 min 0 W/m 16,1 km/h (3 Bft) 100,00 %
15.11.2018 16:58 7,4 C 6,7 C 6,1 C 85 % 1023,3 hPa 0,0 l/m 0 min 0 min 0 W/m 16,1 km/h (3 Bft) 100,00 %
15.11.2018 17:00 7,4 C 6,7 C 6,1 C 85 % 1023,3 hPa 0,0 l/m 0 min 0 min 0 W/m 22,5 km/h (4 Bft) 97,83 %
15.11.2018 17:02 7,4 C 6,1 C 5,6 C 85 % 1023,3 hPa 0,0 l/m 0 min 0 min 0 W/m 12,9 km/h (3 Bft) 97,87 %
15.11.2018 17:04 7,3 C 6,1 C 5,6 C 85 % 1023,3 hPa 0,0 l/m 0 min 0 min 0 W/m 19,3 km/h (3 Bft) 100,00 %
15.11.2018 17:06 7,3 C 6,1 C 5,6 C 86 % 1023,2 hPa 0,0 l/m 0 min 0 min 0 W/m 16,1 km/h (3 Bft) 97,87 %
15.11.2018 17:08 7,2 C 6,1 C 5,6 C 85 % 1023,3 hPa 0,0 l/m 0 min 0 min 0 W/m 22,5 km/h (4 Bft) 97,87 %
15.11.2018 17:10 7,2 C 6,1 C 5,6 C 86 % 1023,3 hPa 0,0 l/m 0 min 0 min 0 W/m 12,9 km/h (3 Bft) 97,87 %
15.11.2018 17:12 7,2 C 6,1 C 5,6 C 86 % 1023,3 hPa 0,0 l/m 0 min 0 min 0 W/m 29,0 km/h (5 Bft) 95,65 %
15.11.2018 17:14 7,1 C 6,1 C 5,6 C 86 % 1023,3 hPa 0,0 l/m 0 min 0 min 0 W/m 16,1 km/h (3 Bft) 97,87 %
15.11.2018 17:16 7,1 C 6,1 C 5,6 C 86 % 1023,3 hPa 0,0 l/m 0 min 0 min 0 W/m 22,5 km/h (4 Bft) 95,74 %
15.11.2018 17:18 7,1 C 6,1 C 5,6 C 86 % 1023,3 hPa 0,0 l/m 0 min 0 min 0 W/m 22,5 km/h (4 Bft) 91,49 %
15.11.2018 17:20 7,0 C 6,1 C 5,6 C 86 % 1023,3 hPa 0,0 l/m 0 min 0 min 0 W/m 16,1 km/h (3 Bft) 97,87 %
15.11.2018 17:22 7,0 C 6,1 C 5,6 C 86 % 1023,3 hPa 0,0 l/m 0 min 0 min 0 W/m 19,3 km/h (3 Bft) 97,87 %
15.11.2018 17:24 6,9 C 6,1 C 5,6 C 86 % 1023,2 hPa 0,0 l/m 0 min 0 min 0 W/m 16,1 km/h (3 Bft) 97,83 %
15.11.2018 17:26 6,9 C 6,1 C 5,6 C 87 % 1023,2 hPa 0,0 l/m 0 min 0 min 0 W/m 22,5 km/h (4 Bft) 95,74 %
15.11.2018 17:28 6,9 C 6,1 C 5,6 C 87 % 1023,2 hPa 0,0 l/m 0 min 0 min 0 W/m 19,3 km/h (3 Bft) 93,62 %
15.11.2018 17:30 6,8 C 6,1 C 5,6 C 87 % 1023,2 hPa 0,0 l/m 0 min 0 min 0 W/m 22,5 km/h (4 Bft) 95,74 %
15.11.2018 17:32 6,8 C 6,1 C 5,6 C 87 % 1023,2 hPa 0,0 l/m 0 min 0 min 0 W/m 12,9 km/h (3 Bft) 95,74 %
15.11.2018 17:34 6,8 C 5,6 C 5,6 C 87 % 1023,2 hPa 0,0 l/m 0 min 0 min 0 W/m 16,1 km/h (3 Bft) 95,74 %
15.11.2018 17:36 6,7 C 5,6 C 5,0 C 87 % 1023,3 hPa 0,0 l/m 0 min 0 min 0 W/m 9,7 km/h (2 Bft) 93,48 %
15.11.2018 17:38 6,7 C 5,6 C 5,0 C 87 % 1023,3 hPa 0,0 l/m 0 min 0 min 0 W/m 29,0 km/h (5 Bft) 95,74 %
15.11.2018 17:40 6,7 C 5,6 C 5,0 C 87 % 1023,2 hPa 0,0 l/m 0 min 0 min 0 W/m 19,3 km/h (3 Bft) 95,74 %
15.11.2018 17:42 6,6 C 5,6 C 5,0 C 87 % 1023,2 hPa 0,0 l/m 0 min 0 min 0 W/m 25,7 km/h (4 Bft) 93,62 %
15.11.2018 17:44 6,6 C 5,6 C 5,0 C 88 % 1023,2 hPa 0,0 l/m 0 min 0 min 0 W/m 22,5 km/h (4 Bft) 95,74 %
15.11.2018 17:46 6,6 C 5,6 C 5,0 C 88 % 1023,2 hPa 0,0 l/m 0 min 0 min 0 W/m 19,3 km/h (3 Bft) 91,49 %
15.11.2018 17:48 6,6 C 5,6 C 5,0 C 88 % 1023,2 hPa 0,0 l/m 0 min 0 min 0 W/m 22,5 km/h (4 Bft) 95,65 %
15.11.2018 17:50 6,5 C 5,6 C 5,0 C 88 % 1023,2 hPa 0,0 l/m 0 min 0 min 0 W/m 25,7 km/h (4 Bft) 95,74 %
15.11.2018 17:52 6,4 C 5,6 C 5,0 C 88 % 1023,2 hPa 0,0 l/m 0 min 0 min 0 W/m 19,3 km/h (3 Bft) 95,74 %
15.11.2018 17:54 6,4 C 5,6 C 5,0 C 88 % 1023,2 hPa 0,0 l/m 0 min 0 min 0 W/m 19,3 km/h (3 Bft) 93,62 %
15.11.2018 17:56 6,4 C 5,6 C 5,0 C 88 % 1023,2 hPa 0,0 l/m 0 min 0 min 0 W/m 22,5 km/h (4 Bft) 93,62 %
15.11.2018 17:58 6,4 C 5,6 C 5,0 C 88 % 1023,2 hPa 0,0 l/m 0 min 0 min 0 W/m 25,7 km/h (4 Bft) 97,83 %
15.11.2018 18:00 6,4 C 5,6 C 5,0 C 88 % 1023,2 hPa 0,0 l/m 0 min 0 min 0 W/m 25,7 km/h (4 Bft) 95,74 %
15.11.2018 18:02 6,3 C 5,6 C 5,0 C 89 % 1023,2 hPa 0,0 l/m 0 min 0 min 0 W/m 22,5 km/h (4 Bft) 97,87 %
15.11.2018 18:04 6,3 C 5,6 C 5,0 C 89 % 1023,2 hPa 0,0 l/m 0 min 0 min 0 W/m 22,5 km/h (4 Bft) 93,62 %
15.11.2018 18:08 6,2 C 5,6 C 5,0 C 89 % 1023,2 hPa 0,0 l/m 0 min 0 min 0 W/m 25,7 km/h (4 Bft) 100,00 %
15.11.2018 18:10 6,2 C 5,6 C 5,0 C 89 % 1023,2 hPa 0,0 l/m 0 min 0 min 0 W/m 22,5 km/h (4 Bft) 100,00 %
15.11.2018 18:12 6,2 C 5,6 C 5,0 C 89 % 1023,3 hPa 0,0 l/m 0 min 0 min 0 W/m 25,7 km/h (4 Bft) 97,87 %
15.11.2018 18:14 6,2 C 5,6 C 5,0 C 89 % 1023,3 hPa 0,0 l/m 0 min 0 min 0 W/m 22,5 km/h (4 Bft) 97,87 %
15.11.2018 18:16 6,1 C 5,0 C 5,0 C 89 % 1023,3 hPa 0,0 l/m 0 min 0 min 0 W/m 16,1 km/h (3 Bft) 100,00 %
15.11.2018 18:18 6,1 C 5,0 C 4,4 C 89 % 1023,3 hPa 0,0 l/m 0 min 0 min 0 W/m 19,3 km/h (3 Bft) 100,00 %
15.11.2018 18:20 6,1 C 5,0 C 4,4 C 89 % 1023,3 hPa 0,0 l/m 0 min 0 min 0 W/m 12,9 km/h (3 Bft) 97,87 %
15.11.2018 18:22 6,0 C 5,0 C 4,4 C 89 % 1023,4 hPa 0,0 l/m 0 min 0 min 0 W/m 16,1 km/h (3 Bft) 97,83 %
15.11.2018 18:24 6,0 C 5,0 C 4,4 C 89 % 1023,3 hPa 0,0 l/m 0 min 0 min 0 W/m 19,3 km/h (3 Bft) 100,00 %
15.11.2018 18:26 6,0 C 5,0 C 4,4 C 90 % 1023,4 hPa 0,0 l/m 0 min 0 min 0 W/m 25,7 km/h (4 Bft) 100,00 %
15.11.2018 18:28 5,9 C 5,0 C 4,4 C 90 % 1023,3 hPa 0,0 l/m 0 min 0 min 0 W/m 16,1 km/h (3 Bft) 100,00 %
15.11.2018 18:30 5,9 C 5,0 C 4,4 C 90 % 1023,4 hPa 0,0 l/m 0 min 0 min 0 W/m 19,3 km/h (3 Bft) 100,00 %
15.11.2018 18:32 5,9 C 5,0 C 4,4 C 90 % 1023,4 hPa 0,0 l/m 0 min 0 min 0 W/m 19,3 km/h (3 Bft) 100,00 %
15.11.2018 18:34 5,8 C 5,0 C 4,4 C 90 % 1023,5 hPa 0,0 l/m 0 min 0 min 0 W/m 16,1 km/h (3 Bft) 100,00 %
15.11.2018 18:36 5,8 C 5,0 C 4,4 C 90 % 1023,4 hPa 0,0 l/m 0 min 0 min 0 W/m 22,5 km/h (4 Bft) 100,00 %
15.11.2018 18:38 5,8 C 5,0 C 4,4 C 90 % 1023,5 hPa 0,0 l/m 0 min 0 min 0 W/m 12,9 km/h (3 Bft) 100,00 %
15.11.2018 18:40 5,8 C 5,0 C 4,4 C 90 % 1023,4 hPa 0,0 l/m 0 min 0 min 0 W/m 12,9 km/h (3 Bft) 100,00 %
15.11.2018 18:42 5,8 C 5,0 C 4,4 C 90 % 1023,4 hPa 0,0 l/m 0 min 0 min 0 W/m 9,7 km/h (2 Bft) 100,00 %
15.11.2018 18:44 5,7 C 5,0 C 4,4 C 90 % 1023,5 hPa 0,0 l/m 0 min 0 min 0 W/m 9,7 km/h (2 Bft) 100,00 %
15.11.2018 18:46 5,7 C 5,0 C 4,4 C 90 % 1023,5 hPa 0,0 l/m 0 min 0 min 0 W/m 16,1 km/h (3 Bft) 100,00 %
15.11.2018 18:48 5,7 C 5,0 C 4,4 C 90 % 1023,5 hPa 0,0 l/m 0 min 0 min 0 W/m 12,9 km/h (3 Bft) 97,87 %
15.11.2018 18:50 5,7 C 4,4 C 4,4 C 90 % 1023,6 hPa 0,0 l/m 0 min 0 min 0 W/m 16,1 km/h (3 Bft) 100,00 %
15.11.2018 18:52 5,6 C 4,4 C 4,4 C 90 % 1023,5 hPa 0,0 l/m 0 min 0 min 0 W/m 16,1 km/h (3 Bft) 100,00 %
15.11.2018 18:54 5,6 C 4,4 C 4,4 C 90 % 1023,5 hPa 0,0 l/m 0 min 0 min 0 W/m 9,7 km/h (2 Bft) 100,00 %
15.11.2018 18:56 5,6 C 4,4 C 4,4 C 90 % 1023,5 hPa 0,0 l/m 0 min 0 min 0 W/m 22,5 km/h (4 Bft) 100,00 %
15.11.2018 18:58 5,6 C 4,4 C 3,9 C 91 % 1023,4 hPa 0,0 l/m 0 min 0 min 0 W/m 9,7 km/h (2 Bft) 100,00 %
15.11.2018 19:00 5,5 C 4,4 C 3,9 C 91 % 1023,5 hPa 0,0 l/m 0 min 0 min 0 W/m 9,7 km/h (2 Bft) 100,00 %
15.11.2018 19:02 5,5 C 4,4 C 3,9 C 91 % 1023,5 hPa 0,0 l/m 0 min 0 min 0 W/m 6,4 km/h (2 Bft) 97,87 %
15.11.2018 19:04 5,4 C 4,4 C 3,9 C 91 % 1023,4 hPa 0,0 l/m 0 min 0 min 0 W/m 16,1 km/h (3 Bft) 100,00 %
15.11.2018 19:06 5,4 C 4,4 C 3,9 C 91 % 1023,5 hPa 0,0 l/m 0 min 0 min 0 W/m 12,9 km/h (3 Bft) 100,00 %
15.11.2018 19:08 5,4 C 4,4 C 3,9 C 91 % 1023,4 hPa 0,0 l/m 0 min 0 min 0 W/m 12,9 km/h (3 Bft) 100,00 %
15.11.2018 19:10 5,4 C 4,4 C 3,9 C 91 % 1023,5 hPa 0,0 l/m 0 min 0 min 0 W/m 16,1 km/h (3 Bft) 97,87 %
15.11.2018 19:12 5,4 C 4,4 C 3,9 C 91 % 1023,5 hPa 0,0 l/m 0 min 0 min 0 W/m 12,9 km/h (3 Bft) 97,87 %
15.11.2018 19:14 5,3 C 4,4 C 3,9 C 91 % 1023,6 hPa 0,0 l/m 0 min 0 min 0 W/m 12,9 km/h (3 Bft) 100,00 %
15.11.2018 19:16 5,3 C 4,4 C 3,9 C 91 % 1023,6 hPa 0,0 l/m 0 min 0 min 0 W/m 9,7 km/h (2 Bft) 100,00 %
15.11.2018 19:18 5,3 C 4,4 C 3,9 C 91 % 1023,6 hPa 0,0 l/m 0 min 0 min 0 W/m 16,1 km/h (3 Bft) 97,87 %
15.11.2018 19:20 5,2 C 4,4 C 3,9 C 91 % 1023,6 hPa 0,0 l/m 0 min 0 min 0 W/m 9,7 km/h (2 Bft) 100,00 %
15.11.2018 19:22 5,2 C 4,4 C 3,9 C 91 % 1023,6 hPa 0,0 l/m 0 min 0 min 0 W/m 9,7 km/h (2 Bft) 100,00 %
15.11.2018 19:24 5,2 C 4,4 C 3,9 C 91 % 1023,6 hPa 0,0 l/m 0 min 0 min 0 W/m 12,9 km/h (3 Bft) 100,00 %
15.11.2018 19:26 5,2 C 4,4 C 3,9 C 91 % 1023,7 hPa 0,0 l/m 0 min 0 min 0 W/m 9,7 km/h (2 Bft) 100,00 %
15.11.2018 19:28 5,1 C 4,4 C 3,9 C 91 % 1023,7 hPa 0,0 l/m 0 min 0 min 0 W/m 9,7 km/h (2 Bft) 97,87 %
15.11.2018 19:30 5,1 C 3,9 C 3,9 C 91 % 1023,7 hPa 0,0 l/m 0 min 0 min 0 W/m 12,9 km/h (3 Bft) 100,00 %
15.11.2018 19:32 5,1 C 3,9 C 3,9 C 91 % 1023,7 hPa 0,0 l/m 0 min 0 min 0 W/m 12,9 km/h (3 Bft) 97,83 %
15.11.2018 19:34 5,1 C 3,9 C 3,9 C 92 % 1023,7 hPa 0,0 l/m 0 min 0 min 0 W/m 16,1 km/h (3 Bft) 97,87 %
15.11.2018 19:36 5,0 C 3,9 C 3,9 C 92 % 1023,7 hPa 0,0 l/m 0 min 2 min 0 W/m 9,7 km/h (2 Bft) 97,87 %
15.11.2018 19:38 5,0 C 3,9 C 3,3 C 92 % 1023,6 hPa 0,0 l/m 0 min 2 min 0 W/m 6,4 km/h (2 Bft) 100,00 %
15.11.2018 19:40 4,9 C 3,9 C 3,3 C 92 % 1023,6 hPa 0,0 l/m 0 min 0 min 0 W/m 9,7 km/h (2 Bft) 97,87 %
15.11.2018 19:42 4,9 C 3,9 C 3,3 C 92 % 1023,6 hPa 0,0 l/m 0 min 0 min 0 W/m 12,9 km/h (3 Bft) 95,74 %
15.11.2018 19:44 4,9 C 3,9 C 3,3 C 92 % 1023,6 hPa 0,0 l/m 0 min 0 min 0 W/m 9,7 km/h (2 Bft) 91,30 %
15.11.2018 19:46 4,9 C 3,9 C 3,3 C 92 % 1023,7 hPa 0,0 l/m 0 min 0 min 0 W/m 9,7 km/h (2 Bft) 97,87 %
15.11.2018 19:48 4,8 C 3,9 C 3,3 C 92 % 1023,6 hPa 0,0 l/m 0 min 0 min 0 W/m 12,9 km/h (3 Bft) 93,62 %
15.11.2018 19:50 4,8 C 3,9 C 3,3 C 92 % 1023,6 hPa 0,0 l/m 0 min 0 min 0 W/m 12,9 km/h (3 Bft) 95,74 %
15.11.2018 19:52 4,8 C 3,9 C 3,3 C 92 % 1023,5 hPa 0,0 l/m 0 min 0 min 0 W/m 16,1 km/h (3 Bft) 95,74 %
15.11.2018 19:54 4,8 C 3,9 C 3,3 C 92 % 1023,6 hPa 0,0 l/m 0 min 0 min 0 W/m 16,1 km/h (3 Bft) 95,74 %
15.11.2018 19:56 4,8 C 3,9 C 3,3 C 92 % 1023,6 hPa 0,0 l/m 0 min 0 min 0 W/m 19,3 km/h (3 Bft) 95,65 %
15.11.2018 19:58 4,8 C 3,9 C 3,3 C 92 % 1023,6 hPa 0,0 l/m 0 min 0 min 0 W/m 12,9 km/h (3 Bft) 95,74 %
15.11.2018 20:00 4,8 C 3,9 C 3,3 C 92 % 1023,5 hPa 0,0 l/m 0 min 0 min 0 W/m 19,3 km/h (3 Bft) 95,74 %
15.11.2018 20:02 4,7 C 3,9 C 3,3 C 92 % 1023,5 hPa 0,0 l/m 0 min 0 min 0 W/m 16,1 km/h (3 Bft) 93,62 %
15.11.2018 20:04 4,7 C 3,9 C 3,3 C 92 % 1023,6 hPa 0,0 l/m 0 min 0 min 0 W/m 9,7 km/h (2 Bft) 95,74 %
15.11.2018 20:06 4,7 C 3,9 C 3,3 C 92 % 1023,6 hPa 0,0 l/m 0 min 0 min 0 W/m 16,1 km/h (3 Bft) 95,74 %
15.11.2018 20:08 4,7 C 3,9 C 3,3 C 92 % 1023,6 hPa 0,0 l/m 0 min 0 min 0 W/m 9,7 km/h (2 Bft) 95,65 %
15.11.2018 20:10 4,7 C 3,9 C 3,3 C 93 % 1023,6 hPa 0,0 l/m 0 min 0 min 0 W/m 16,1 km/h (3 Bft) 91,49 %
15.11.2018 20:12 4,7 C 3,9 C 3,3 C 93 % 1023,5 hPa 0,0 l/m 0 min 0 min 0 W/m 19,3 km/h (3 Bft) 91,49 %
15.11.2018 20:14 4,7 C 3,9 C 3,3 C 93 % 1023,6 hPa 0,0 l/m 0 min 0 min 0 W/m 22,5 km/h (4 Bft) 91,49 %
15.11.2018 20:16 4,7 C 3,9 C 3,3 C 93 % 1023,6 hPa 0,0 l/m 0 min 0 min 0 W/m 9,7 km/h (2 Bft) 93,62 %
15.11.2018 20:18 4,7 C 3,9 C 3,3 C 93 % 1023,6 hPa 0,0 l/m 0 min 0 min 0 W/m 16,1 km/h (3 Bft) 93,62 %
15.11.2018 20:20 4,7 C 3,9 C 3,3 C 93 % 1023,7 hPa 0,0 l/m 0 min 0 min 0 W/m 22,5 km/h (4 Bft) 93,48 %
15.11.2018 20:22 4,7 C 3,9 C 3,3 C 93 % 1023,6 hPa 0,0 l/m 0 min 0 min 0 W/m 16,1 km/h (3 Bft) 91,49 %
15.11.2018 20:24 4,7 C 3,9 C 3,3 C 93 % 1023,7 hPa 0,0 l/m 0 min 0 min 0 W/m 16,1 km/h (3 Bft) 93,62 %
15.11.2018 20:26 4,7 C 3,9 C 3,3 C 93 % 1023,6 hPa 0,0 l/m 0 min 0 min 0 W/m 16,1 km/h (3 Bft) 93,62 %
15.11.2018 20:28 4,6 C 3,9 C 3,3 C 93 % 1023,5 hPa 0,0 l/m 0 min 0 min 0 W/m 19,3 km/h (3 Bft) 91,49 %
15.11.2018 20:30 4,6 C 3,9 C 3,3 C 93 % 1023,6 hPa 0,0 l/m 0 min 0 min 0 W/m 19,3 km/h (3 Bft) 95,65 %
15.11.2018 20:32 4,6 C 3,9 C 3,3 C 93 % 1023,6 hPa 0,0 l/m 0 min 0 min 0 W/m 22,5 km/h (4 Bft) 100,00 %
15.11.2018 20:34 4,6 C 3,9 C 3,3 C 93 % 1023,6 hPa 0,0 l/m 0 min 0 min 0 W/m 19,3 km/h (3 Bft) 93,62 %
15.11.2018 20:36 4,6 C 3,9 C 3,3 C 93 % 1023,6 hPa 0,0 l/m 0 min 0 min 0 W/m 12,9 km/h (3 Bft) 95,74 %
15.11.2018 20:38 4,6 C 3,9 C 3,3 C 93 % 1023,6 hPa 0,0 l/m 0 min 0 min 0 W/m 25,7 km/h (4 Bft) 95,74 %
15.11.2018 20:40 4,6 C 3,9 C 3,3 C 93 % 1023,6 hPa 0,0 l/m 0 min 0 min 0 W/m 12,9 km/h (3 Bft) 93,62 %
15.11.2018 20:42 4,6 C 3,9 C 3,3 C 93 % 1023,6 hPa 0,0 l/m 0 min 0 min 0 W/m 16,1 km/h (3 Bft) 95,65 %
15.11.2018 20:44 4,6 C 3,9 C 3,3 C 93 % 1023,6 hPa 0,0 l/m 0 min 0 min 0 W/m 25,7 km/h (4 Bft) 95,74 %
15.11.2018 20:46 4,6 C 3,9 C 3,3 C 93 % 1023,6 hPa 0,0 l/m 0 min 0 min 0 W/m 19,3 km/h (3 Bft) 95,74 %
15.11.2018 20:48 4,6 C 3,9 C 3,3 C 93 % 1023,7 hPa 0,0 l/m 0 min 0 min 0 W/m 12,9 km/h (3 Bft) 97,87 %
15.11.2018 20:50 4,6 C 3,9 C 3,3 C 93 % 1023,7 hPa 0,0 l/m 0 min 0 min 0 W/m 19,3 km/h (3 Bft) 97,87 %
15.11.2018 20:52 4,6 C 3,9 C 3,3 C 93 % 1023,7 hPa 0,0 l/m 0 min 0 min 0 W/m 16,1 km/h (3 Bft) 93,62 %
15.11.2018 20:54 4,6 C 3,9 C 3,3 C 93 % 1023,7 hPa 0,0 l/m 0 min 0 min 0 W/m 22,5 km/h (4 Bft) 95,65 %
15.11.2018 20:56 4,6 C 3,9 C 3,3 C 93 % 1023,7 hPa 0,0 l/m 0 min 0 min 0 W/m 16,1 km/h (3 Bft) 97,87 %
15.11.2018 20:58 4,6 C 3,9 C 3,3 C 93 % 1023,7 hPa 0,0 l/m 0 min 0 min 0 W/m 16,1 km/h (3 Bft) 93,62 %
15.11.2018 21:00 4,6 C 3,9 C 3,3 C 94 % 1023,6 hPa 0,0 l/m 0 min 0 min 0 W/m 22,5 km/h (4 Bft) 97,87 %
15.11.2018 21:02 4,6 C 3,9 C 3,3 C 94 % 1023,6 hPa 0,0 l/m 0 min 0 min 0 W/m 16,1 km/h (3 Bft) 95,74 %
15.11.2018 21:04 4,6 C 3,9 C 3,3 C 94 % 1023,6 hPa 0,0 l/m 0 min 0 min 0 W/m 12,9 km/h (3 Bft) 97,87 %
15.11.2018 21:06 4,5 C 3,9 C 3,3 C 94 % 1023,7 hPa 0,0 l/m 0 min 0 min 0 W/m 12,9 km/h (3 Bft) 97,83 %
15.11.2018 21:08 4,5 C 3,9 C 3,3 C 94 % 1023,6 hPa 0,0 l/m 0 min 0 min 0 W/m 22,5 km/h (4 Bft) 100,00 %
15.11.2018 21:10 4,5 C 3,9 C 3,3 C 94 % 1023,7 hPa 0,0 l/m 0 min 0 min 0 W/m 19,3 km/h (3 Bft) 100,00 %
15.11.2018 21:12 4,5 C 3,9 C 3,3 C 94 % 1023,7 hPa 0,0 l/m 0 min 0 min 0 W/m 19,3 km/h (3 Bft) 97,87 %
15.11.2018 21:14 4,5 C 3,9 C 3,3 C 94 % 1023,7 hPa 0,0 l/m 0 min 0 min 0 W/m 16,1 km/h (3 Bft) 97,87 %
15.11.2018 21:16 4,5 C 3,9 C 3,3 C 94 % 1023,7 hPa 0,0 l/m 0 min 0 min 0 W/m 22,5 km/h (4 Bft) 100,00 %
15.11.2018 21:18 4,5 C 3,9 C 3,3 C 94 % 1023,7 hPa 0,0 l/m 0 min 0 min 0 W/m 22,5 km/h (4 Bft) 97,83 %
15.11.2018 21:20 4,5 C 3,9 C 3,3 C 94 % 1023,7 hPa 0,0 l/m 0 min 0 min 0 W/m 19,3 km/h (3 Bft) 97,87 %
15.11.2018 21:22 4,5 C 3,9 C 3,3 C 94 % 1023,7 hPa 0,0 l/m 0 min 0 min 0 W/m 16,1 km/h (3 Bft) 100,00 %
15.11.2018 21:24 4,4 C 3,9 C 3,3 C 94 % 1023,7 hPa 0,0 l/m 0 min 0 min 0 W/m 16,1 km/h (3 Bft) 97,87 %
15.11.2018 21:26 4,4 C 3,9 C 3,3 C 94 % 1023,8 hPa 0,0 l/m 0 min 0 min 0 W/m 22,5 km/h (4 Bft) 97,87 %
15.11.2018 21:28 4,4 C 3,9 C 3,3 C 94 % 1023,8 hPa 0,0 l/m 0 min 0 min 0 W/m 16,1 km/h (3 Bft) 100,00 %
15.11.2018 21:30 4,4 C 3,9 C 3,3 C 94 % 1023,8 hPa 0,0 l/m 0 min 0 min 0 W/m 22,5 km/h (4 Bft) 100,00 %
15.11.2018 21:32 4,4 C 3,9 C 3,3 C 94 % 1023,8 hPa 0,0 l/m 0 min 0 min 0 W/m 16,1 km/h (3 Bft) 100,00 %
15.11.2018 21:34 4,4 C 3,9 C 3,3 C 94 % 1023,7 hPa 0,0 l/m 0 min 0 min 0 W/m 9,7 km/h (2 Bft) 100,00 %
15.11.2018 21:36 4,4 C 3,9 C 3,3 C 94 % 1023,7 hPa 0,0 l/m 0 min 0 min 0 W/m 12,9 km/h (3 Bft) 100,00 %
15.11.2018 21:38 4,4 C 3,9 C 3,3 C 94 % 1023,8 hPa 0,0 l/m 0 min 0 min 0 W/m 12,9 km/h (3 Bft) 100,00 %
15.11.2018 21:40 4,4 C 3,9 C 3,3 C 94 % 1023,8 hPa 0,0 l/m 0 min 0 min 0 W/m 16,1 km/h (3 Bft) 100,00 %
15.11.2018 21:42 4,4 C 3,9 C 3,3 C 94 % 1023,8 hPa 0,0 l/m 0 min 0 min 0 W/m 6,4 km/h (2 Bft) 100,00 %
15.11.2018 21:44 4,4 C 3,9 C 3,3 C 94 % 1023,8 hPa 0,0 l/m 0 min 0 min 0 W/m 16,1 km/h (3 Bft) 100,00 %
15.11.2018 21:46 4,4 C 3,9 C 3,3 C 94 % 1023,9 hPa 0,0 l/m 0 min 0 min 0 W/m 12,9 km/h (3 Bft) 100,00 %
15.11.2018 21:48 4,3 C 3,9 C 3,3 C 94 % 1023,9 hPa 0,0 l/m 0 min 0 min 0 W/m 12,9 km/h (3 Bft) 100,00 %
15.11.2018 21:50 4,3 C 3,9 C 3,3 C 94 % 1023,9 hPa 0,0 l/m 0 min 0 min 0 W/m 16,1 km/h (3 Bft) 100,00 %
15.11.2018 21:52 4,3 C 3,9 C 3,3 C 94 % 1023,9 hPa 0,0 l/m 0 min 0 min 0 W/m 16,1 km/h (3 Bft) 100,00 %
15.11.2018 21:54 4,3 C 3,9 C 3,3 C 94 % 1023,9 hPa 0,0 l/m 0 min 0 min 0 W/m 19,3 km/h (3 Bft) 100,00 %
15.11.2018 21:56 4,3 C 3,9 C 3,3 C 94 % 1023,9 hPa 0,0 l/m 0 min 0 min 0 W/m 16,1 km/h (3 Bft) 100,00 %
15.11.2018 21:58 4,3 C 3,9 C 3,3 C 94 % 1023,9 hPa 0,0 l/m 0 min 0 min 0 W/m 12,9 km/h (3 Bft) 100,00 %
15.11.2018 22:00 4,3 C 3,9 C 3,3 C 94 % 1023,9 hPa 0,0 l/m 0 min 0 min 0 W/m 16,1 km/h (3 Bft) 97,87 %
15.11.2018 22:02 4,3 C 3,9 C 3,3 C 94 % 1023,9 hPa 0,0 l/m 0 min 0 min 0 W/m 16,1 km/h (3 Bft) 97,87 %
15.11.2018 22:04 4,3 C 3,9 C 3,3 C 94 % 1023,9 hPa 0,0 l/m 0 min 0 min 0 W/m 12,9 km/h (3 Bft) 100,00 %
15.11.2018 22:06 4,3 C 3,9 C 3,3 C 94 % 1024,0 hPa 0,0 l/m 0 min 0 min 0 W/m 16,1 km/h (3 Bft) 100,00 %
15.11.2018 22:08 4,3 C 3,9 C 3,3 C 94 % 1024,0 hPa 0,0 l/m 0 min 0 min 0 W/m 9,7 km/h (2 Bft) 97,87 %
15.11.2018 22:10 4,3 C 3,9 C 3,3 C 94 % 1024,0 hPa 0,0 l/m 0 min 0 min 0 W/m 16,1 km/h (3 Bft) 97,87 %
15.11.2018 22:12 4,3 C 3,9 C 3,3 C 94 % 1024,1 hPa 0,0 l/m 0 min 0 min 0 W/m 16,1 km/h (3 Bft) 95,74 %
15.11.2018 22:14 4,3 C 3,9 C 3,3 C 94 % 1024,1 hPa 0,0 l/m 0 min 0 min 0 W/m 12,9 km/h (3 Bft) 100,00 %
15.11.2018 22:16 4,3 C 3,9 C 3,3 C 94 % 1024,1 hPa 0,0 l/m 0 min 0 min 0 W/m 22,5 km/h (4 Bft) 100,00 %
15.11.2018 22:18 4,3 C 3,9 C 3,3 C 94 % 1024,1 hPa 0,0 l/m 0 min 0 min 0 W/m 9,7 km/h (2 Bft) 100,00 %
15.11.2018 22:20 4,3 C 3,9 C 3,3 C 94 % 1024,2 hPa 0,0 l/m 0 min 0 min 0 W/m 25,7 km/h (4 Bft) 97,87 %
15.11.2018 22:22 4,3 C 3,9 C 3,3 C 94 % 1024,1 hPa 0,0 l/m 0 min 0 min 0 W/m 19,3 km/h (3 Bft) 95,74 %
15.11.2018 22:24 4,3 C 3,9 C 3,3 C 94 % 1024,1 hPa 0,0 l/m 0 min 0 min 0 W/m 16,1 km/h (3 Bft) 97,87 %
15.11.2018 22:26 4,3 C 3,9 C 3,3 C 94 % 1024,1 hPa 0,0 l/m 0 min 0 min 0 W/m 16,1 km/h (3 Bft) 97,87 %
15.11.2018 22:28 4,3 C 3,9 C 3,3 C 94 % 1024,1 hPa 0,0 l/m 0 min 0 min 0 W/m 25,7 km/h (4 Bft) 97,83 %
15.11.2018 22:30 4,3 C 3,9 C 3,3 C 94 % 1024,1 hPa 0,0 l/m 0 min 0 min 0 W/m 22,5 km/h (4 Bft) 95,74 %
15.11.2018 22:32 4,3 C 3,9 C 3,3 C 94 % 1024,1 hPa 0,0 l/m 0 min 0 min 0 W/m 29,0 km/h (5 Bft) 97,87 %
15.11.2018 22:34 4,3 C 3,9 C 3,3 C 94 % 1024,1 hPa 0,0 l/m 0 min 0 min 0 W/m 22,5 km/h (4 Bft) 97,87 %
15.11.2018 22:36 4,3 C 3,9 C 3,3 C 94 % 1024,1 hPa 0,0 l/m 0 min 0 min 0 W/m 19,3 km/h (3 Bft) 97,87 %
15.11.2018 22:38 4,3 C 3,9 C 3,3 C 94 % 1024,1 hPa 0,0 l/m 0 min 0 min 0 W/m 25,7 km/h (4 Bft) 97,87 %
15.11.2018 22:40 4,3 C 3,9 C 3,3 C 94 % 1024,1 hPa 0,0 l/m 0 min 0 min 0 W/m 16,1 km/h (3 Bft) 97,83 %
15.11.2018 22:42 4,3 C 3,9 C 3,3 C 94 % 1024,1 hPa 0,0 l/m 0 min 0 min 0 W/m 19,3 km/h (3 Bft) 95,74 %
15.11.2018 22:44 4,3 C 3,9 C 3,3 C 94 % 1024,1 hPa 0,0 l/m 0 min 0 min 0 W/m 19,3 km/h (3 Bft) 97,87 %
15.11.2018 22:46 4,3 C 3,9 C 3,3 C 94 % 1024,1 hPa 0,0 l/m 0 min 0 min 0 W/m 22,5 km/h (4 Bft) 97,87 %
15.11.2018 22:48 4,3 C 3,9 C 3,3 C 94 % 1024,1 hPa 0,0 l/m 0 min 0 min 0 W/m 12,9 km/h (3 Bft) 95,74 %
15.11.2018 22:50 4,3 C 3,9 C 3,3 C 94 % 1024,1 hPa 0,0 l/m 0 min 0 min 0 W/m 25,7 km/h (4 Bft) 97,96 %
15.11.2018 22:52 4,3 C 3,9 C 3,3 C 94 % 1024,1 hPa 0,0 l/m 0 min 0 min 0 W/m 25,7 km/h (4 Bft) 95,74 %
15.11.2018 22:54 4,3 C 3,9 C 3,3 C 94 % 1024,1 hPa 0,0 l/m 0 min 0 min 0 W/m 16,1 km/h (3 Bft) 97,87 %
15.11.2018 22:56 4,3 C 3,9 C 3,3 C 94 % 1024,1 hPa 0,0 l/m 0 min 0 min 0 W/m 25,7 km/h (4 Bft) 100,00 %
15.11.2018 22:58 4,3 C 3,9 C 3,3 C 94 % 1024,2 hPa 0,0 l/m 0 min 0 min 0 W/m 16,1 km/h (3 Bft) 93,62 %
15.11.2018 23:00 4,3 C 3,9 C 3,3 C 94 % 1024,2 hPa 0,0 l/m 0 min 0 min 0 W/m 19,3 km/h (3 Bft) 97,87 %
15.11.2018 23:02 4,3 C 3,9 C 3,3 C 94 % 1024,3 hPa 0,0 l/m 0 min 0 min 0 W/m 12,9 km/h (3 Bft) 100,00 %
15.11.2018 23:04 4,3 C 3,9 C 3,3 C 94 % 1024,2 hPa 0,0 l/m 0 min 0 min 0 W/m 22,5 km/h (4 Bft) 100,00 %
15.11.2018 23:06 4,3 C 3,9 C 3,3 C 94 % 1024,3 hPa 0,0 l/m 0 min 0 min 0 W/m 16,1 km/h (3 Bft) 100,00 %
15.11.2018 23:08 4,3 C 3,9 C 3,3 C 94 % 1024,3 hPa 0,0 l/m 0 min 0 min 0 W/m 12,9 km/h (3 Bft) 95,74 %
15.11.2018 23:10 4,3 C 3,9 C 3,3 C 94 % 1024,2 hPa 0,0 l/m 0 min 0 min 0 W/m 19,3 km/h (3 Bft) 95,74 %
15.11.2018 23:12 4,3 C 3,9 C 3,3 C 94 % 1024,3 hPa 0,0 l/m 0 min 0 min 0 W/m 22,5 km/h (4 Bft) 97,87 %
15.11.2018 23:14 4,3 C 3,9 C 3,3 C 94 % 1024,3 hPa 0,0 l/m 0 min 0 min 0 W/m 16,1 km/h (3 Bft) 95,65 %
15.11.2018 23:16 4,3 C 3,9 C 3,3 C 94 % 1024,2 hPa 0,0 l/m 0 min 0 min 0 W/m 25,7 km/h (4 Bft) 97,87 %
15.11.2018 23:18 4,3 C 3,9 C 3,3 C 94 % 1024,3 hPa 0,0 l/m 0 min 0 min 0 W/m 19,3 km/h (3 Bft) 97,87 %
15.11.2018 23:20 4,3 C 3,9 C 3,3 C 94 % 1024,2 hPa 0,0 l/m 0 min 0 min 0 W/m 22,5 km/h (4 Bft) 97,87 %
15.11.2018 23:22 4,3 C 3,9 C 3,3 C 94 % 1024,3 hPa 0,0 l/m 0 min 0 min 0 W/m 19,3 km/h (3 Bft) 97,87 %
15.11.2018 23:24 4,3 C 3,9 C 3,3 C 94 % 1024,2 hPa 0,0 l/m 0 min 0 min 0 W/m 22,5 km/h (4 Bft) 97,87 %
15.11.2018 23:26 4,4 C 3,9 C 3,3 C 94 % 1024,3 hPa 0,0 l/m 0 min 0 min 0 W/m 19,3 km/h (3 Bft) 97,83 %
15.11.2018 23:28 4,3 C 3,9 C 3,3 C 94 % 1024,3 hPa 0,0 l/m 0 min 0 min 0 W/m 22,5 km/h (4 Bft) 97,87 %
15.11.2018 23:30 4,4 C 3,9 C 3,3 C 94 % 1024,3 hPa 0,0 l/m 0 min 0 min 0 W/m 16,1 km/h (3 Bft) 97,87 %
15.11.2018 23:32 4,3 C 3,9 C 3,3 C 94 % 1024,3 hPa 0,0 l/m 0 min 0 min 0 W/m 25,7 km/h (4 Bft) 97,87 %
15.11.2018 23:34 4,3 C 3,9 C 3,3 C 94 % 1024,3 hPa 0,0 l/m 0 min 0 min 0 W/m 22,5 km/h (4 Bft) 97,87 %
15.11.2018 23:36 4,4 C 3,9 C 3,3 C 94 % 1024,4 hPa 0,0 l/m 0 min 0 min 0 W/m 22,5 km/h (4 Bft) 97,87 %
15.11.2018 23:38 4,4 C 3,9 C 3,3 C 94 % 1024,3 hPa 0,0 l/m 0 min 0 min 0 W/m 22,5 km/h (4 Bft) 97,83 %
15.11.2018 23:40 4,4 C 3,9 C 3,3 C 94 % 1024,3 hPa 0,0 l/m 0 min 0 min 0 W/m 25,7 km/h (4 Bft) 95,74 %
15.11.2018 23:42 4,4 C 3,9 C 3,3 C 94 % 1024,3 hPa 0,0 l/m 0 min 0 min 0 W/m 29,0 km/h (5 Bft) 95,74 %
15.11.2018 23:44 4,4 C 3,9 C 3,3 C 94 % 1024,3 hPa 0,0 l/m 0 min 0 min 0 W/m 25,7 km/h (4 Bft) 95,74 %
15.11.2018 23:46 4,4 C 3,9 C 3,3 C 94 % 1024,3 hPa 0,0 l/m 0 min 0 min 0 W/m 22,5 km/h (4 Bft) 95,74 %
15.11.2018 23:48 4,4 C 3,9 C 3,3 C 94 % 1024,3 hPa 0,0 l/m 0 min 0 min 0 W/m 19,3 km/h (3 Bft) 93,62 %
15.11.2018 23:50 4,4 C 3,9 C 3,3 C 94 % 1024,3 hPa 0,0 l/m 0 min 0 min 0 W/m 19,3 km/h (3 Bft) 95,65 %
15.11.2018 23:52 4,4 C 3,9 C 3,3 C 94 % 1024,4 hPa 0,0 l/m 0 min 0 min 0 W/m 22,5 km/h (4 Bft) 95,74 %
15.11.2018 23:54 4,4 C 3,9 C 3,3 C 94 % 1024,3 hPa 0,0 l/m 0 min 0 min 0 W/m 22,5 km/h (4 Bft) 95,74 %
15.11.2018 23:56 4,4 C 3,9 C 3,3 C 94 % 1024,3 hPa 0,0 l/m 0 min 0 min 0 W/m 22,5 km/h (4 Bft) 97,87 %
15.11.2018 23:58 4,4 C 3,9 C 3,3 C 93 % 1024,2 hPa 0,0 l/m 0 min 0 min 0 W/m 19,3 km/h (3 Bft) 97,87 %
_ Min-Zeit 21:48 19:30 19:38 14:24 15:56 - - - - 04:18 19:44
Minimum _ 4,3 C 3,9 C 3,3 C 77 % 1023,1 hPa - - - - 3,2 km/h (1 Bft) 91,30 %
_ Max-Zeit 13:54 13:56 12:12 01:30 10:04 11:18 12:08 19:36 12:24 11:18 00:50
Maximum _ 10,6 C 15,0 C 11,7 C 96 % 1024,4 hPa 0,2 l/m 4 min 2 min 387 W/m 32,2 km/h
O-SO (5 Bft)
100,00 %
Durchschnitt _ 6,6 C 6,9 C 5,3 C 91 % 1023,8 hPa #0,2 l/m #5:56 h #4 min. 200 W/m 16,3 km/h (3 Bft) 97,57 %
© 2018 W. Hausmann